GFSCGP_sfc_rhum_000.txt.gz
RH
17 13 17 19 19 17 16 16 16 14 19 25 23 16 15 16 15 17 16 15 17 21 22 21 23 24 30 39 36 32 32 37 30 26 26 24 26 25 26 26 33 36 34 36
14 21 18 20 20 18 18 18 18 19 22 26 19 18 16 17 19 19 17 17 18 19 19 23 25 28 30 33 33 31 28 29 27 24 28 31 34 28 30 28 32 30 33 32
18 19 19 20 22 24 22 21 26 25 22 23 21 20 18 18 18 18 18 18 18 19 20 22 26 30 32 34 32 29 30 31 33 30 26 26 27 27 27 28 26 29 33 32
20 22 25 23 27 28 24 25 30 28 27 21 24 20 24 18 19 19 20 21 21 21 20 21 23 28 31 37 36 32 32 30 31 34 32 38 31 32 33 33 30 31 32 33
26 25 27 28 29 29 32 33 32 31 27 28 25 20 26 21 22 22 22 24 24 25 27 29 30 30 31 35 38 36 33 32 33 32 37 34 38 36 34 34 35 32 29 32
26 24 26 28 27 29 30 32 33 32 31 39 32 28 28 25 28 24 25 28 30 30 27 31 31 30 32 36 40 38 33 32 35 36 37 44 47 44 38 34 33 30 31 31
27 29 27 30 27 29 26 29 38 50 48 43 32 29 35 29 27 29 31 31 33 34 33 31 31 30 34 38 39 35 34 32 35 39 38 39 39 40 38 37 34 38 35 35
32 38 33 32 35 35 34 35 51 50 49 38 30 30 30 28 27 29 29 32 32 33 33 32 31 32 35 38 39 38 36 34 33 36 34 32 38 38 36 38 39 40 41 42
39 37 32 34 31 32 35 43 39 55 79 65 30 33 31 28 28 28 30 32 33 32 32 32 31 33 36 39 40 44 40 33 34 37 39 42 43 43 44 45 44 41 46 41
42 43 35 33 32 33 33 35 44 43 75 44 23 26 25 36 32 31 31 32 33 31 31 31 30 35 38 38 42 43 42 39 40 40 41 41 43 43 44 44 46 47 48 50
34 39 37 37 38 37 38 41 41 37 47 54 54 29 31 30 30 31 31 29 32 34 32 32 33 33 34 39 40 41 43 44 42 40 42 43 45 43 43 45 47 49 50 46
43 47 40 34 39 38 37 40 38 49 45 54 62 45 28 29 29 31 31 31 33 35 33 32 34 36 38 42 42 42 44 41 43 42 42 43 44 42 44 48 50 54 55 54
42 50 38 38 42 38 41 39 42 48 57 61 82 45 26 28 26 28 34 34 36 36 32 32 35 38 41 40 42 48 52 49 43 41 40 41 48 48 52 56 60 64 68 70
57 46 44 33 31 34 37 34 36 42 70 54 51 40 30 27 30 31 36 39 36 36 36 39 45 43 43 48 51 55 50 48 46 44 42 46 52 61 67 71 63 59 55 54
48 51 50 40 37 36 41 40 36 40 46 62 49 37 33 32 34 37 40 39 39 41 45 46 46 46 43 44 46 48 49 47 50 48 44 49 48 45 44 45 44 43 42 36
51 58 66 60 46 40 49 40 38 41 42 44 43 44 34 34 37 42 43 44 46 50 49 51 54 48 39 39 45 51 43 46 53 48 47 42 43 40 39 40 39 36 34 33
62 71 76 85 60 62 85 52 38 37 40 40 51 38 39 43 46 47 47 48 57 61 58 61 54 37 39 42 53 43 40 46 50 44 40 42 43 37 37 32 30 32 36 39
94 82 92 99 92 92 46 33 34 41 38 32 34 41 46 46 46 41 52 63 79 73 56 45 38 35 38 43 41 40 38 43 44 42 40 42 39 36 32 32 33 36 37 39
62 85 100 100 73 53 42 39 43 45 44 39 47 49 50 46 44 48 70 81 67 63 49 40 35 35 37 42 39 41 41 40 40 41 43 44 38 37 32 33 36 38 39 40
68 79 93 93 99 93 49 39 40 42 57 51 64 76 77 55 84 89 64 72 63 42 37 34 30 33 40 44 40 44 43 42 42 44 49 39 38 36 33 36 39 40 38 40
95 97 98 91 97 70 42 44 44 84 80 68 80 82 82 84 90 78 71 53 35 33 32 31 28 30 36 38 42 48 41 40 36 39 40 40 37 34 35 37 38 40 41 52
65 94 97 96 100 96 43 45 83 65 76 83 80 71 70 71 70 54 40 34 30 32 30 27 30 31 34 37 44 43 35 31 36 40 41 41 37 34 33 39 40 42 47 62
67 59 59 65 67 43 42 52 53 68 79 71 74 63 68 63 46 37 34 31 31 31 28 28 32 38 36 35 42 40 32 37 45 42 42 40 38 38 38 40 46 46 48 70
50 48 71 73 56 49 54 50 59 70 78 76 73 56 50 46 38 35 32 31 34 28 29 33 35 36 41 41 49 43 42 43 41 42 40 40 41 44 43 43 44 43 60 71
54 53 62 76 64 58 51 64 77 74 78 79 54 46 40 34 34 32 31 31 29 30 34 35 38 40 37 38 57 50 48 42 36 39 41 45 50 51 50 45 43 52 59 66
50 54 86 97 70 71 71 72 69 81 68 49 43 38 32 32 34 32 30 30 31 35 39 38 40 43 40 41 45 49 45 48 51 51 49 55 62 60 56 45 46 71 69 68

GFSCGP_sfc_rhum_003.txt.gz
RH
12 12 15 16 14 12 11 11 11 10 13 14 15 11 13 13 12 13 12 12 12 11 16 22 21 22 24 28 26 24 29 34 26 25 26 24 25 25 26 25 30 33 32 33
11 17 15 15 15 15 14 14 14 13 14 15 14 13 13 14 15 14 14 14 16 19 20 21 22 24 25 30 28 30 30 26 23 23 26 31 32 28 28 27 30 28 32 33
16 17 16 17 17 18 17 18 21 20 15 13 15 16 15 15 14 15 15 16 15 17 20 23 25 30 32 32 30 26 27 28 30 27 25 26 26 27 26 28 28 29 36 31
17 18 19 19 21 20 21 20 22 20 19 18 14 17 18 15 17 17 19 19 18 18 18 19 23 27 33 34 32 29 28 27 29 33 30 35 32 33 34 33 31 30 32 28
22 21 22 23 24 22 25 25 23 22 21 19 17 15 23 16 18 20 21 22 22 22 23 24 25 27 29 34 36 32 30 29 30 30 35 36 39 38 38 35 40 40 32 30
21 18 21 23 22 22 23 25 24 25 22 33 23 20 22 20 22 22 23 25 25 23 26 26 26 27 31 34 36 35 30 29 32 34 36 42 54 51 38 36 34 30 32 30
21 23 22 23 23 23 20 23 38 44 41 39 23 20 28 23 22 23 26 25 28 29 27 26 26 27 31 33 34 32 29 28 30 35 37 35 35 36 36 35 35 37 34 34
24 36 25 23 27 28 25 28 48 43 42 32 22 22 25 22 23 24 24 26 26 29 30 30 29 30 30 32 33 36 34 32 28 32 33 33 34 34 34 37 37 38 39 40
30 31 24 25 24 24 28 34 27 45 56 56 21 21 23 23 24 24 25 26 27 28 28 29 28 29 33 33 34 38 36 33 34 36 36 37 37 39 40 42 42 39 43 36
28 36 25 24 24 26 29 25 40 37 64 38 19 17 26 31 26 25 24 26 26 27 27 27 26 29 31 31 34 36 38 36 35 35 35 34 38 39 38 39 41 42 42 42
24 28 30 26 30 29 30 33 32 25 37 47 43 27 25 25 25 27 26 24 25 26 27 27 28 31 30 30 33 36 36 40 36 34 37 41 39 38 38 38 41 47 52 50
33 34 40 24 30 30 28 31 29 46 39 43 52 43 22 24 23 25 26 26 27 28 28 28 28 31 34 37 36 36 40 42 40 39 38 36 36 37 38 41 47 51 55 58
34 42 39 30 36 30 31 29 29 37 48 54 74 44 24 25 26 22 27 29 28 33 34 34 35 34 35 38 40 43 45 46 45 39 35 34 37 38 43 45 47 49 48 47
52 34 36 39 28 24 30 25 23 31 54 50 46 34 24 24 25 25 27 31 37 38 39 40 40 39 40 43 48 43 43 46 44 38 36 37 40 40 39 40 40 39 37 35
38 45 39 33 26 24 26 28 26 26 30 50 44 32 28 27 30 30 30 33 35 38 41 45 42 40 40 37 36 36 45 46 41 42 39 41 37 36 34 35 36 35 33 30
38 54 56 51 30 27 34 26 24 25 30 30 30 32 28 28 27 32 40 43 43 47 51 52 41 38 37 33 33 34 41 37 38 44 39 37 36 36 36 35 34 31 30 29
51 59 59 73 50 55 83 47 28 27 27 34 46 33 27 33 44 50 52 47 51 57 57 46 41 34 32 28 29 33 32 34 40 39 36 34 37 41 36 32 27 28 31 34
72 64 86 95 89 92 40 26 26 31 30 26 26 29 35 46 43 45 52 56 55 51 52 40 34 29 24 23 25 30 30 31 32 34 34 33 41 41 36 32 29 31 33 36
47 71 94 99 64 47 37 34 36 42 42 29 38 45 47 45 44 47 50 47 52 50 39 30 26 23 22 21 23 27 28 28 30 33 35 40 41 47 38 33 32 33 34 36
56 70 81 93 98 91 51 32 33 36 56 48 50 57 71 55 74 50 46 46 44 31 24 24 24 23 21 21 22 26 27 29 34 32 30 34 36 43 41 34 34 34 33 36
92 94 97 85 98 65 35 37 37 69 73 58 61 69 62 65 61 54 48 36 26 22 22 22 21 21 21 23 25 27 26 31 30 28 31 36 38 38 34 30 32 33 36 47
69 93 97 90 99 89 36 39 75 55 49 61 70 70 63 62 50 42 33 27 24 22 21 19 20 22 23 22 25 27 25 27 31 35 37 36 34 31 25 33 33 36 39 53
56 52 60 59 57 37 44 68 53 50 60 68 71 71 69 51 39 34 30 26 24 21 18 18 19 24 24 24 24 26 38 42 46 53 47 38 32 28 28 34 36 36 39 56
41 32 62 66 43 39 48 48 51 60 63 66 65 58 42 41 35 30 28 27 23 18 19 18 23 25 28 28 28 31 48 52 44 45 38 34 34 41 38 33 33 36 53 64
47 42 52 60 43 42 44 60 58 54 59 63 52 42 39 33 31 30 28 24 22 22 22 25 28 28 30 31 34 33 41 42 42 47 38 44 44 43 42 37 39 47 55 63
41 46 69 74 51 64 67 65 54 54 56 55 41 37 32 31 30 27 25 25 24 26 27 26 26 30 33 36 40 44 46 46 53 54 46 52 57 53 50 42 44 70 70 64

GFSCGP_sfc_rhum_009.txt.gz
RH
21 28 31 26 23 18 17 18 22 22 16 21 20 21 22 22 24 24 27 39 39 39 40 47 50 56 65 64 69 76 81 68 67 61 67 62 55 56 60 53 58 56 52 52
23 29 21 17 20 22 18 26 31 22 18 18 20 25 24 24 26 27 31 35 38 42 45 46 47 47 56 67 69 67 65 65 59 57 62 58 58 57 57 55 57 59 60 57
30 25 17 19 26 26 28 31 31 29 22 22 25 29 26 24 24 24 28 31 36 41 47 50 51 56 54 67 55 50 48 48 53 56 47 49 52 55 58 62 62 59 65 58
24 22 22 23 26 27 36 30 29 26 31 34 22 41 32 29 32 31 33 37 38 41 45 46 52 57 58 61 53 49 47 44 44 51 55 56 62 68 71 73 69 70 59 56
31 29 31 30 28 26 35 34 33 33 36 38 30 41 34 29 36 36 37 38 42 44 47 50 53 54 57 55 54 54 48 44 45 47 53 65 65 68 69 72 66 62 62 59
27 26 28 28 25 27 25 34 36 37 41 65 38 44 53 45 37 39 38 39 40 43 45 48 51 50 54 54 52 46 46 47 48 51 58 58 57 64 69 68 68 66 65 67
29 30 29 26 34 32 32 46 77 76 79 76 42 43 53 40 35 37 44 46 47 47 48 47 46 50 55 57 56 54 52 48 53 54 57 62 63 64 68 67 66 62 66 68
45 52 31 27 32 37 38 43 80 76 87 70 28 50 50 34 34 34 36 40 43 44 44 44 43 46 46 43 49 55 50 49 54 65 62 63 64 68 61 57 58 70 78 77
50 42 30 25 26 32 40 49 35 66 79 85 50 43 37 32 32 33 33 34 44 46 43 39 41 43 46 51 60 63 58 58 57 57 62 62 64 59 60 57 74 79 76 60
34 47 28 26 30 30 33 30 59 69 70 64 46 55 63 46 44 35 35 38 42 41 44 47 49 55 57 58 67 67 62 61 60 59 62 57 60 57 61 73 72 72 72 72
43 50 42 34 37 41 43 48 44 43 66 79 85 58 44 46 43 44 41 47 51 51 53 56 56 54 57 60 64 66 64 62 63 59 56 56 58 60 66 68 68 67 66 64
42 51 68 42 34 31 35 41 45 79 68 83 86 63 49 47 42 43 42 46 51 50 53 56 56 55 54 58 57 56 60 65 63 60 62 57 59 54 59 60 61 61 61 66
52 54 79 60 49 38 37 32 46 64 76 63 84 71 39 46 47 42 47 50 50 54 57 60 60 58 54 52 53 55 58 63 59 59 60 60 56 56 57 54 59 59 58 56
62 46 57 72 47 37 43 34 35 60 90 80 75 53 41 59 58 56 56 57 59 60 57 59 60 60 55 52 52 51 49 55 64 63 65 70 74 62 60 60 58 53 52 50
54 70 59 49 40 36 37 36 35 36 44 67 55 51 53 60 54 58 57 57 58 58 55 55 56 56 50 49 45 39 42 48 47 65 63 68 74 70 79 78 64 60 55 51
59 87 75 72 50 48 52 45 43 38 37 38 42 49 52 54 52 56 60 62 60 55 54 53 52 47 41 36 35 36 40 42 42 38 38 62 77 81 80 78 73 64 54 50
74 81 88 88 73 83 79 62 46 43 43 45 62 54 58 62 59 71 70 60 58 58 56 54 50 41 38 37 38 40 38 39 40 38 48 71 77 78 80 78 70 61 57 56
78 88 97 93 85 73 59 39 39 47 44 43 53 61 62 62 67 66 61 62 60 56 53 50 47 37 36 35 36 37 35 37 42 56 58 67 74 76 79 82 65 62 61 59
69 92 96 97 95 64 51 46 54 58 59 62 69 68 65 59 59 68 56 57 59 54 45 38 35 33 33 35 34 35 37 36 40 57 62 63 68 72 74 87 73 69 65 71
78 85 90 98 92 86 66 48 45 50 86 71 71 76 76 69 93 85 69 58 47 36 34 32 31 30 33 33 33 37 38 41 56 62 62 67 72 76 82 81 71 66 62 80
96 94 96 94 93 86 63 47 47 79 76 78 76 77 82 87 88 80 74 48 36 35 31 32 31 33 34 33 35 38 40 45 57 62 64 64 66 68 69 63 59 61 82 86
88 96 96 90 90 93 51 50 63 71 78 77 74 78 80 82 78 75 50 40 36 35 29 28 34 37 36 34 38 40 46 47 55 62 65 63 64 55 48 57 61 72 83 84
79 83 92 82 84 62 55 58 63 74 78 82 77 68 74 76 71 56 45 42 38 31 32 32 37 38 38 40 39 49 55 56 63 66 66 66 64 58 56 62 70 78 83 92
59 59 84 78 63 56 61 71 70 74 76 70 68 66 70 74 56 48 45 40 38 36 38 37 38 41 46 46 45 57 57 57 64 68 70 70 75 76 72 68 72 86 96 96
67 61 63 76 63 61 75 76 76 70 67 69 62 64 61 49 48 43 42 41 40 38 38 40 45 49 48 54 59 59 59 60 71 75 77 84 87 84 79 72 77 93 85 87
66 65 83 85 68 75 86 76 68 71 68 68 66 50 45 41 40 41 42 43 44 46 48 47 51 53 54 65 67 65 66 73 81 84 88 94 96 94 89 83 88 77 76 69

GFSCGP_sfc_rhum_015.txt.gz
RH
28 28 29 32 29 21 24 29 29 28 23 31 40 44 48 59 70 76 74 73 77 78 80 81 84 90 86 88 87 86 88 86 79 75 80 78 90 84 77 67 64 66 60 63
28 30 28 31 33 30 28 30 35 30 24 32 41 46 49 49 63 68 66 70 72 77 72 70 76 81 89 87 82 76 76 70 69 81 89 91 83 68 66 64 65 63 65 63
32 29 27 28 33 35 42 40 38 30 29 33 36 44 46 45 56 61 66 64 63 72 75 72 76 79 80 70 63 56 57 57 66 73 70 59 58 64 72 74 64 64 66 68
36 34 31 32 32 38 43 38 35 32 33 47 35 60 51 53 61 65 69 76 74 69 64 64 65 64 63 65 59 54 52 54 54 56 59 60 65 68 82 80 69 71 73 74
41 40 36 34 37 36 40 39 37 39 43 44 42 56 56 50 65 68 72 68 64 61 60 62 62 60 60 61 61 60 58 59 58 62 67 74 70 81 78 72 68 74 73 69
37 34 33 37 35 35 35 42 48 56 53 67 53 55 57 57 54 60 60 64 60 62 69 65 63 61 64 67 67 69 69 71 70 68 69 72 72 70 68 64 63 70 75 84
37 36 34 35 41 38 41 52 73 76 78 77 52 60 59 50 48 54 58 59 65 68 71 68 59 59 68 74 72 68 66 65 65 66 66 66 66 65 62 60 66 78 86 91
52 50 36 29 40 43 46 50 78 63 76 67 50 69 59 52 51 50 52 56 63 71 62 60 64 70 73 71 67 64 59 61 60 61 61 63 64 69 68 66 75 84 86 84
52 48 36 33 33 40 48 53 48 74 82 83 68 57 45 48 54 53 54 56 62 70 70 68 70 72 72 72 71 69 66 63 62 62 65 65 69 72 74 73 82 85 83 76
45 46 38 31 36 37 37 39 59 72 63 64 62 67 67 54 52 54 63 67 70 68 68 69 72 74 72 69 69 68 66 64 64 67 70 68 69 70 75 80 82 82 80 71
50 44 45 41 44 49 46 49 55 60 73 74 82 71 58 54 58 66 72 70 69 71 68 67 64 63 63 60 58 63 64 67 73 76 76 78 79 74 74 81 81 77 74 75
56 59 71 50 41 43 45 50 50 72 65 88 85 64 56 59 63 62 63 62 67 65 67 61 60 57 54 57 58 56 56 58 62 66 70 72 75 73 76 76 78 76 74 76
52 60 77 62 52 43 48 48 61 64 73 69 80 60 54 58 63 60 68 71 71 70 67 63 58 57 58 56 50 47 50 50 53 54 62 66 74 80 86 75 73 76 75 74
60 64 57 67 58 51 47 49 58 57 79 71 69 54 71 71 70 70 75 75 73 69 63 60 58 57 53 49 45 46 46 48 47 48 59 71 77 79 77 79 78 80 82 90
58 65 64 60 59 50 47 43 57 60 60 65 58 62 54 70 75 75 75 74 67 65 60 58 59 55 52 44 45 43 43 45 46 48 62 74 81 83 84 86 89 88 86 88
71 78 65 76 66 68 56 47 50 51 50 60 55 61 70 72 74 78 74 68 66 57 52 54 55 55 45 42 40 39 40 43 48 50 66 72 79 83 85 90 92 92 94 87
74 78 66 60 80 68 54 58 56 50 50 50 64 61 73 79 77 78 75 68 64 59 54 56 58 49 43 42 40 38 39 43 48 52 68 72 77 82 82 87 92 93 94 94
83 92 88 81 75 54 42 53 50 51 58 71 76 76 71 78 82 77 69 68 66 62 59 55 47 40 42 41 38 41 40 45 50 59 70 72 74 79 81 86 91 93 94 94
73 89 98 78 80 50 40 53 58 58 57 72 75 74 75 81 75 80 67 64 63 63 52 47 40 39 40 38 38 42 46 48 51 67 70 72 77 81 84 86 90 92 92 83
79 78 77 98 66 54 44 60 53 52 75 75 75 80 85 79 94 86 70 66 66 46 41 36 36 38 39 41 45 48 49 53 59 68 72 73 79 79 77 80 88 76 78 78
97 97 86 99 84 72 53 56 54 65 57 83 78 79 83 83 82 72 79 80 47 38 35 40 40 42 45 46 50 52 55 60 60 66 69 74 70 72 72 70 70 86 86 84
94 97 98 97 95 68 56 60 66 65 77 78 84 81 79 77 81 82 80 46 38 38 40 41 45 48 50 52 56 59 64 61 64 70 73 72 71 71 65 70 86 81 83 84
76 68 81 74 74 58 60 64 63 72 80 86 85 83 80 84 84 79 54 45 42 41 43 44 48 52 56 60 61 68 69 70 74 78 77 74 76 78 78 74 84 86 85 94
72 69 86 76 58 64 62 61 69 80 80 84 81 81 80 80 77 53 48 49 45 45 49 50 55 62 68 67 69 77 78 80 84 81 75 77 80 81 82 74 77 85 97 97
73 74 72 84 71 77 74 73 76 82 84 81 75 72 71 72 54 50 50 49 49 52 54 58 65 72 71 73 79 77 83 86 88 85 78 83 96 85 82 75 82 84 83 87
75 67 84 72 63 71 66 77 82 85 82 74 72 63 52 46 48 48 54 55 56 60 61 66 71 74 75 84 80 80 83 91 90 94 92 98 98 93 86 86 86 76 83 79

GFSCGP_sfc_rhum_018.txt.gz
RH
28 28 29 31 27 21 25 26 28 31 27 45 62 67 67 82 84 86 92 93 96 95 82 91 96 94 94 95 93 93 94 94 94 80 84 82 85 89 80 69 64 60 60 67
27 32 31 34 34 31 31 31 36 34 34 49 59 61 67 67 80 82 89 94 94 90 88 87 92 92 90 90 93 93 92 83 71 81 88 90 86 76 71 66 70 70 71 70
32 35 32 35 38 34 42 35 41 36 40 45 48 54 62 61 72 70 72 77 83 87 90 90 90 88 80 78 75 68 68 68 72 72 71 68 70 76 79 72 70 74 75 74
38 37 34 33 35 40 42 40 35 36 45 50 44 71 63 70 76 76 77 80 85 83 74 70 65 66 64 68 64 61 59 60 61 64 68 69 77 79 86 77 76 78 75 74
44 40 36 36 40 37 42 40 38 42 46 47 47 65 67 69 83 81 82 81 83 78 69 64 57 62 70 68 70 71 70 69 72 74 74 79 84 82 78 74 76 76 76 70
41 38 37 40 37 37 38 46 50 59 56 66 60 57 64 71 68 74 72 74 72 76 78 72 67 65 69 67 67 72 69 68 67 66 68 69 68 68 68 68 71 77 80 86
39 40 36 36 42 40 47 53 75 76 79 77 56 61 54 51 58 65 68 72 73 79 79 76 71 67 71 74 75 69 66 64 64 64 64 64 64 66 65 66 72 76 86 92
51 45 36 32 42 43 48 53 77 63 83 73 56 68 58 52 52 56 62 68 72 77 73 71 71 79 75 68 66 65 64 63 63 64 64 66 67 74 75 73 76 83 87 91
52 49 39 35 38 42 51 56 52 74 82 84 73 60 57 63 62 61 63 67 76 73 76 77 75 75 75 73 73 70 65 65 64 66 72 74 75 76 81 81 84 90 90 80
48 51 42 36 40 40 43 45 57 72 63 59 68 72 73 66 66 64 70 71 77 76 77 78 77 74 72 71 70 68 65 69 72 77 80 78 80 77 78 82 86 87 87 81
49 46 45 42 47 51 49 52 61 62 73 73 84 72 59 57 59 62 72 74 74 74 76 76 73 68 62 58 56 60 58 66 67 66 71 70 71 72 78 81 83 83 81 78
58 60 69 49 46 51 49 52 50 68 59 87 83 62 50 59 58 68 74 71 72 71 72 70 67 62 54 54 54 51 55 50 53 58 60 60 68 75 83 80 80 83 83 82
50 61 76 56 47 44 51 58 60 63 75 73 81 60 56 70 71 70 74 76 78 75 74 72 66 57 57 59 53 49 47 45 48 50 56 61 70 75 76 75 76 78 84 84
59 63 55 58 51 54 54 58 59 54 77 68 70 51 69 71 72 75 81 82 77 73 67 65 66 59 61 56 45 47 47 47 46 48 55 66 72 76 81 81 84 87 88 86
55 62 64 68 66 56 48 47 62 56 56 60 57 56 48 65 70 73 80 80 75 72 68 63 63 64 60 45 47 44 45 47 48 51 53 66 76 84 88 90 90 92 93 91
69 75 60 75 72 70 60 49 51 62 59 64 65 60 50 71 80 83 80 76 73 68 62 59 56 53 52 44 44 43 42 44 50 53 56 70 76 80 88 87 87 93 94 94
72 77 61 56 79 63 60 53 53 54 55 52 60 47 80 84 80 81 84 75 71 66 55 50 50 51 43 45 43 40 41 46 51 56 58 72 76 80 84 84 90 92 93 95
79 79 81 76 73 58 43 55 55 54 54 54 68 69 79 82 86 82 77 74 72 64 53 54 53 43 45 44 41 44 44 48 53 55 64 73 77 80 83 87 88 91 94 94
71 84 95 76 77 48 33 45 61 60 53 64 67 79 81 83 78 82 73 69 69 62 61 56 47 42 43 40 42 46 49 51 53 59 72 75 78 83 88 85 84 90 91 87
76 75 75 93 64 53 42 51 56 52 73 62 71 80 86 80 93 76 73 70 66 63 46 41 40 40 41 45 49 51 52 56 60 65 72 75 80 83 78 79 81 85 84 83
98 98 82 98 81 67 47 55 56 64 59 81 75 80 88 85 79 73 74 73 68 41 37 40 41 43 47 50 55 57 61 65 65 68 72 75 78 75 75 75 74 78 88 83
93 98 98 95 90 67 54 60 63 64 72 80 82 82 79 78 79 85 81 67 41 39 41 42 46 49 54 58 62 64 71 69 73 78 81 82 79 72 72 77 84 85 86 84
77 71 80 72 73 55 57 67 65 66 63 82 82 81 72 82 84 86 66 46 43 39 41 46 49 54 58 64 69 77 78 79 84 88 84 85 78 74 77 77 84 85 86 95
76 68 82 70 54 64 64 60 64 67 72 79 84 85 82 84 83 65 46 51 52 44 48 50 55 61 69 70 76 81 80 84 90 86 85 86 85 84 80 80 74 87 98 96
76 73 72 81 70 72 66 73 65 68 80 82 81 81 79 81 71 56 58 53 46 50 54 56 63 73 73 74 83 82 84 89 94 93 90 90 92 98 86 75 84 87 85 86
78 68 82 77 55 57 56 58 79 81 82 82 81 82 63 62 58 57 56 55 55 59 59 61 70 76 76 86 90 88 88 92 95 97 92 89 97 99 95 82 85 79 84 80

GFSCGP_sfc_rhum_021.txt.gz
RH
25 22 23 23 18 16 18 19 20 24 30 48 61 62 62 62 60 65 67 68 74 77 87 85 86 85 85 84 83 88 96 94 91 74 68 58 76 82 62 49 53 52 51 53
24 28 27 30 27 26 25 27 31 33 37 45 52 62 62 62 67 68 68 72 77 85 86 85 80 80 79 83 86 81 77 78 60 52 59 63 62 54 48 49 55 53 55 52
30 28 29 31 30 31 34 31 31 34 38 39 43 47 62 63 66 70 72 75 80 84 85 83 79 78 76 79 78 68 57 56 55 59 54 52 56 55 50 47 47 52 52 48
33 30 29 30 33 31 37 30 35 39 34 34 34 28 56 67 72 74 74 77 78 81 76 67 58 59 62 61 59 54 52 50 52 52 53 59 52 54 54 50 49 46 54 53
35 34 31 35 33 32 36 32 32 31 33 34 36 34 49 64 72 72 69 71 71 68 61 51 49 49 50 53 54 56 56 54 56 56 58 53 55 52 50 51 55 55 55 56
34 28 30 30 35 34 40 38 42 45 41 42 43 36 42 66 61 63 61 63 62 58 52 50 52 52 52 56 60 59 52 50 49 49 51 52 52 51 47 51 52 52 53 55
34 33 29 32 33 33 36 40 52 56 58 51 47 47 36 42 50 54 57 56 56 54 54 53 51 49 56 59 57 53 47 49 50 51 49 50 50 51 52 52 52 56 54 56
37 38 28 30 32 33 40 40 62 54 63 54 44 50 36 43 40 49 49 50 54 55 57 54 54 57 56 56 52 50 46 47 48 51 52 54 56 53 53 57 56 56 60 62
45 36 30 32 31 32 40 41 43 61 68 63 46 43 39 51 46 53 55 55 55 55 56 56 59 57 54 53 56 54 46 47 52 57 58 59 58 57 54 54 59 59 61 56
42 46 35 31 32 36 35 39 46 51 58 47 41 50 40 56 52 54 57 57 56 56 58 59 56 59 55 53 58 56 51 56 64 56 57 51 50 49 50 53 50 52 54 56
37 44 42 35 38 39 41 44 52 47 53 48 52 34 45 45 48 54 53 53 57 59 59 58 56 53 50 51 52 52 57 54 45 41 45 42 43 48 52 51 50 49 55 52
44 54 56 37 37 39 37 40 44 53 49 64 59 38 36 47 47 50 51 55 57 58 58 56 53 50 48 49 51 50 50 40 39 38 38 40 45 46 48 49 50 54 56 60
48 56 59 46 38 36 38 44 46 54 60 60 82 37 37 54 52 49 49 56 61 61 58 55 52 49 48 56 49 39 41 38 34 33 34 36 41 47 51 54 56 57 60 64
58 53 50 48 38 44 46 51 44 44 60 52 54 38 34 49 55 56 58 60 60 60 58 52 50 46 52 51 39 42 40 38 33 31 31 38 47 53 57 60 62 63 64 69
51 54 52 54 54 46 37 44 49 41 44 51 41 42 33 38 48 52 59 65 62 60 57 53 50 49 47 46 43 41 38 36 36 36 36 43 49 58 60 64 63 65 68 69
60 63 54 58 60 58 51 43 44 50 50 44 46 46 36 38 51 60 65 65 62 58 54 50 48 48 47 45 40 39 36 35 37 38 41 45 53 57 60 61 66 66 67 67
62 68 60 60 62 51 60 48 44 46 47 44 50 38 54 56 60 57 61 63 61 58 54 49 48 45 46 44 41 36 32 35 39 42 42 46 58 60 60 59 61 62 64 72
68 64 68 73 71 59 37 45 41 44 42 41 41 42 50 53 60 62 59 62 63 57 52 46 43 44 38 37 34 35 32 37 42 43 45 53 58 59 58 63 62 61 62 70
59 70 81 79 59 42 27 36 50 55 37 42 41 48 64 67 63 61 63 59 57 55 49 44 45 38 37 33 33 34 37 39 41 44 48 53 59 59 61 61 59 57 62 64
64 66 72 78 65 61 41 32 47 43 60 41 51 65 72 63 74 53 62 60 60 53 52 43 36 36 33 36 38 41 41 45 46 51 52 55 56 60 61 59 57 56 56 59
98 95 83 81 79 58 41 41 46 55 53 54 63 64 72 68 62 56 61 62 52 48 37 35 35 35 36 41 44 43 47 50 52 57 59 58 56 60 59 58 55 55 56 65
74 91 91 85 78 69 45 51 61 56 55 54 65 66 72 63 67 65 66 58 42 37 39 39 40 42 46 46 47 45 51 56 56 58 65 60 62 60 56 60 57 59 64 69
70 68 72 63 65 51 48 58 52 56 53 54 66 62 64 70 67 68 63 44 37 34 36 35 38 46 48 49 52 54 58 59 62 68 66 60 61 62 60 62 61 58 60 68
68 61 72 67 52 55 53 49 52 49 55 55 61 61 68 67 69 70 45 42 43 38 43 41 44 45 50 53 58 65 63 63 68 68 70 68 65 61 63 69 60 59 69 71
67 67 69 72 62 57 52 57 54 54 59 62 62 66 70 69 72 51 50 54 58 63 47 46 49 54 54 58 64 66 66 70 70 72 70 72 73 78 73 73 60 63 65 68
69 65 77 71 50 52 50 44 54 63 63 65 70 76 72 66 56 51 64 70 62 50 49 49 57 58 59 66 70 70 68 74 78 78 75 77 79 78 78 74 66 77 80 80

GFSCGP_sfc_rhum_024.txt.gz
RH
20 18 18 13 13 12 10 12 11 15 25 25 26 26 30 38 37 39 36 39 40 42 54 59 59 57 55 61 68 76 80 79 75 72 62 52 52 53 45 39 44 43 42 42
18 20 21 20 15 14 13 13 18 23 26 25 26 32 33 35 40 39 39 39 41 53 58 64 58 63 70 73 73 72 67 62 53 46 41 41 44 41 38 39 44 40 41 38
20 22 22 20 18 17 20 18 23 19 26 26 25 30 35 41 42 45 46 42 48 55 59 59 60 65 69 70 67 57 54 52 41 42 43 44 45 42 38 38 36 39 40 36
23 22 21 19 21 19 21 22 21 25 22 19 23 18 34 41 46 46 50 51 64 60 55 53 55 58 61 62 58 45 42 40 43 42 39 41 36 39 41 39 37 34 40 37
26 23 22 22 25 24 26 25 22 22 20 23 23 19 32 42 46 49 54 54 55 49 45 44 45 48 50 57 48 44 42 40 41 42 43 41 42 39 36 35 37 38 37 39
24 22 22 24 26 24 25 26 25 24 24 30 21 24 16 33 33 46 50 51 51 44 38 36 38 39 41 43 46 45 40 40 40 39 40 41 39 32 28 32 32 29 31 33
23 24 21 23 25 27 26 25 32 42 39 34 31 28 17 22 32 38 46 45 45 41 38 38 38 35 39 44 46 43 39 40 39 37 33 34 35 36 32 33 32 36 30 30
23 31 22 24 25 22 25 24 32 30 34 28 32 29 20 26 27 33 36 37 39 38 38 36 35 37 40 44 43 40 38 35 32 32 34 40 35 30 30 31 28 29 31 31
26 26 24 26 24 24 29 28 30 41 55 50 23 26 25 31 29 35 36 36 37 36 38 36 37 40 42 42 44 42 32 30 35 52 60 47 40 30 28 30 33 29 32 28
28 33 26 27 25 27 27 26 35 36 50 34 21 25 18 37 34 36 38 37 35 33 35 38 39 44 41 41 42 38 36 38 48 49 41 33 28 28 30 32 31 32 33 34
24 27 34 30 28 26 31 30 30 28 37 30 28 15 24 27 30 35 37 35 34 35 37 40 40 42 41 39 36 43 42 48 46 37 32 31 28 28 30 30 31 33 38 37
30 32 42 31 29 29 27 26 24 32 33 44 44 22 23 31 30 29 33 34 33 35 37 39 41 41 38 37 38 44 42 45 42 30 28 26 27 26 28 30 33 37 40 39
33 37 43 38 32 29 30 28 26 34 39 39 65 21 23 30 32 30 32 32 35 39 40 41 42 39 36 36 42 36 47 44 30 24 23 24 26 28 30 32 37 39 41 40
46 36 34 38 27 26 34 33 26 25 40 28 31 15 19 22 27 26 32 32 36 42 42 42 41 38 36 37 36 40 44 34 27 23 22 24 30 31 34 36 40 42 42 43
38 38 36 32 33 32 28 28 29 26 25 36 18 20 12 15 18 21 28 33 37 41 42 43 41 38 37 39 37 35 36 34 28 25 24 29 32 34 36 44 44 44 46 44
42 45 43 44 40 37 36 27 25 26 25 27 22 22 16 18 21 26 35 37 40 41 41 41 40 37 35 37 38 37 35 30 27 26 29 30 34 35 39 44 46 43 45 43
46 51 47 42 43 41 72 39 27 24 26 29 32 23 18 26 27 26 30 37 39 39 40 41 39 36 34 33 45 38 30 28 28 28 30 31 36 37 41 38 38 40 44 48
53 48 59 68 70 82 21 25 24 26 23 20 22 18 22 22 29 34 32 31 38 39 40 40 37 35 33 35 33 30 24 26 29 30 31 31 36 39 38 40 40 45 46 47
39 49 76 92 44 28 14 23 28 33 22 20 21 20 20 37 41 34 37 37 38 40 40 38 35 34 33 31 28 25 25 26 29 29 29 33 40 42 38 39 44 46 46 47
43 46 56 73 89 89 28 30 34 33 36 24 29 32 37 41 50 21 35 42 44 41 38 37 33 32 30 26 25 27 28 30 27 32 35 38 40 40 40 42 46 47 47 45
83 86 89 72 92 47 25 25 36 43 34 32 36 36 43 44 30 38 39 44 41 39 38 34 30 27 27 29 31 31 29 27 31 39 40 37 38 41 43 46 48 48 48 50
60 80 92 77 97 80 30 38 46 37 36 37 35 37 46 40 44 46 44 43 42 40 34 29 29 29 35 35 31 25 24 32 40 40 39 41 43 43 42 49 50 50 51 57
54 47 51 46 44 33 34 34 33 40 41 39 41 34 42 46 44 44 47 46 40 32 29 29 33 43 41 32 28 26 35 48 43 46 46 46 47 47 44 49 54 58 52 57
46 44 54 50 29 32 33 32 31 31 35 33 32 35 39 45 41 46 46 40 34 30 32 41 59 51 43 36 41 43 46 47 48 50 48 47 50 50 48 47 58 59 58 62
44 48 48 52 39 33 30 31 34 34 37 40 38 41 46 47 46 47 43 38 36 46 63 60 49 37 34 41 44 44 48 50 48 48 51 56 55 54 50 48 56 59 55 61
44 43 60 55 42 43 37 36 40 45 45 48 52 51 52 54 53 46 41 50 68 67 62 50 39 39 40 52 48 49 49 51 60 62 59 60 62 58 59 57 56 76 77 79

GFSCGP_sfc_rhum_027.txt.gz
RH
19 18 20 15 14 12 11 12 9 11 14 10 10 13 15 19 18 22 23 27 30 32 35 40 37 37 38 53 64 70 78 69 67 57 54 52 53 47 44 38 41 42 40 40
18 24 16 15 12 13 10 11 12 12 12 16 12 13 17 22 21 21 22 26 28 31 41 42 44 45 46 65 68 64 63 65 62 61 56 44 44 40 36 37 42 39 40 38
38 22 18 15 12 13 12 13 15 14 15 14 15 17 24 23 25 27 24 23 25 31 41 45 47 60 62 69 75 62 61 66 54 41 37 38 40 41 37 38 37 39 39 35
30 18 18 14 14 14 17 16 15 16 19 18 15 17 20 26 28 31 33 31 32 36 38 42 46 66 71 71 70 65 64 42 38 39 36 41 35 40 39 38 37 34 39 36
29 18 18 16 18 18 27 17 17 17 17 22 18 15 45 24 26 28 30 32 38 38 39 42 42 49 58 68 64 45 40 36 39 36 38 39 39 40 35 34 35 32 33 31
28 17 17 18 20 19 18 20 20 19 16 26 14 16 17 24 21 26 31 36 39 38 36 35 38 40 45 49 44 43 38 36 38 38 40 42 40 32 29 32 31 27 28 28
19 17 19 18 20 20 17 20 32 36 32 33 18 19 15 10 19 22 35 37 39 35 32 34 36 36 42 44 44 40 36 37 38 39 35 34 35 34 45 34 28 29 26 26
21 29 19 18 19 18 20 18 33 33 31 23 20 19 14 17 18 21 30 34 37 34 31 32 32 33 36 40 40 36 36 37 35 32 31 34 32 34 28 27 27 29 29 28
21 23 18 20 19 16 20 24 20 29 48 41 16 11 18 21 21 24 30 33 36 32 31 31 30 32 35 38 41 40 37 33 30 35 38 37 46 35 27 28 32 28 29 25
18 26 19 22 20 21 23 18 27 26 38 35 15 14 14 25 23 25 30 32 33 31 30 30 30 35 36 37 41 42 35 30 35 34 40 36 41 29 27 31 31 29 31 32
17 20 28 24 24 17 26 24 22 22 30 37 27 16 14 15 20 25 27 29 31 31 30 30 31 34 36 37 40 37 33 34 35 33 34 45 35 28 29 30 30 30 33 34
20 22 32 25 22 20 21 22 22 36 29 33 42 24 15 17 17 21 24 26 28 28 27 29 32 34 36 38 37 38 37 34 33 32 45 38 28 25 28 29 28 31 34 36
26 26 36 31 26 22 22 19 20 20 30 32 54 24 14 17 17 17 20 23 26 27 27 28 32 35 37 38 36 38 36 34 34 37 37 26 26 26 28 29 29 32 34 36
42 25 28 36 25 20 28 21 19 23 37 30 24 16 14 16 16 15 18 19 22 26 28 29 32 35 36 36 35 37 35 39 37 38 26 24 25 28 31 29 30 34 35 37
32 35 27 23 23 22 21 18 20 21 20 29 22 13 9 9 10 12 14 18 19 25 29 32 34 35 35 35 36 33 35 41 39 34 25 25 27 30 31 31 34 37 39 37
31 36 36 40 28 27 27 21 17 16 17 15 14 15 11 14 11 14 15 19 20 22 27 31 33 34 35 34 35 32 37 37 42 30 28 26 29 30 31 32 39 40 37 35
38 40 43 36 32 31 63 36 24 18 16 19 26 18 12 15 18 18 17 20 23 24 27 30 32 34 34 34 36 34 35 43 36 28 25 27 30 31 32 31 31 33 36 40
45 44 52 55 69 82 17 16 15 20 16 14 14 13 12 13 18 21 19 21 22 24 26 28 30 33 33 32 32 35 37 31 29 27 26 28 28 28 30 32 33 35 38 41
31 42 63 90 41 25 17 13 20 22 19 15 17 15 14 19 27 24 21 22 22 22 25 28 30 32 32 30 34 37 31 28 25 28 27 24 26 33 34 33 34 36 39 42
34 38 50 57 86 88 32 22 23 23 32 19 19 20 21 23 34 21 24 24 25 27 28 30 31 32 31 31 29 28 28 29 29 27 26 26 32 34 33 35 38 40 41 41
75 79 81 66 83 49 21 21 26 40 41 28 25 24 26 29 24 33 30 26 26 26 29 31 32 32 31 27 30 30 34 36 26 28 32 35 31 32 35 38 41 42 44 48
58 74 90 71 98 79 22 26 37 37 27 25 28 28 34 35 32 31 33 31 30 32 32 33 33 30 28 33 44 46 39 28 32 40 42 34 33 34 35 42 44 46 48 55
48 40 50 41 44 29 24 24 23 27 32 31 31 29 30 33 31 31 32 34 34 33 31 28 27 36 46 45 48 52 34 46 49 45 42 39 38 39 39 44 47 47 51 60
34 33 45 43 22 22 22 22 24 26 29 28 29 32 33 37 36 36 35 39 36 28 26 31 46 58 73 70 48 42 46 51 46 46 45 44 44 45 47 47 40 49 71 71
38 36 35 39 29 25 24 26 32 35 36 36 36 39 40 45 42 40 41 37 32 40 47 62 80 86 56 40 39 44 49 50 49 45 45 50 55 59 50 44 47 51 57 69
34 34 56 55 40 49 41 39 46 46 48 46 46 46 44 44 46 41 39 41 52 73 87 72 60 54 42 52 49 45 46 47 53 56 58 68 67 63 55 52 59 66 75 77

GFSCGP_sfc_rhum_030.txt.gz
RH
20 22 24 38 22 16 16 14 14 11 9 12 16 13 12 14 17 26 27 31 34 32 32 34 36 38 44 62 70 72 80 79 77 75 73 72 74 67 66 59 58 56 58 54
23 28 20 25 17 17 16 16 15 11 11 13 10 12 12 14 16 20 25 28 32 33 39 43 41 46 60 68 79 82 75 74 73 65 64 65 63 62 59 58 58 56 54 53
38 29 23 21 17 16 15 15 20 14 10 8 12 12 16 16 17 16 20 22 26 33 46 44 46 53 73 71 77 80 78 73 73 66 63 58 58 59 57 59 59 56 52 48
35 22 22 17 16 14 23 18 16 16 17 20 19 24 42 31 21 21 21 23 26 28 40 41 46 60 68 72 73 68 69 67 66 65 54 59 54 54 58 60 58 55 52 47
35 28 24 22 20 18 26 24 20 14 16 42 33 36 31 37 34 26 28 30 29 30 37 42 59 68 71 72 74 70 67 65 52 50 54 59 59 62 57 58 54 47 49 49
24 19 26 44 25 17 19 22 18 18 20 59 31 48 31 32 30 34 26 30 32 39 39 39 60 64 64 72 72 75 66 48 51 50 54 60 60 53 53 53 52 50 50 48
21 20 16 22 19 16 15 19 42 71 68 56 18 20 29 26 34 68 48 30 37 39 42 43 48 58 65 69 60 55 46 46 51 56 54 53 51 56 55 53 50 47 47 50
28 29 17 16 17 38 21 18 51 76 84 41 18 22 18 16 16 23 28 34 38 40 42 43 45 48 53 53 53 50 44 45 48 51 48 51 52 52 49 49 42 48 47 48
39 42 24 17 15 16 20 25 19 28 54 66 23 13 17 17 18 22 32 35 40 38 37 38 39 45 49 50 53 53 44 43 45 47 51 54 50 46 48 42 45 50 46 38
65 82 37 19 17 17 20 16 32 31 50 46 20 17 28 25 20 22 33 37 39 36 34 35 34 42 43 46 52 56 49 44 43 48 55 51 50 46 42 45 50 45 46 45
23 48 28 22 22 16 24 26 21 18 33 59 57 25 17 17 19 23 29 34 38 38 35 35 34 36 40 45 47 51 47 40 44 45 52 54 49 49 44 48 48 47 47 47
18 24 37 24 17 17 19 24 22 61 38 46 63 39 16 18 16 21 23 26 32 34 33 33 33 36 40 44 45 48 48 42 44 47 46 48 50 45 44 45 46 47 48 49
24 30 44 28 23 21 22 18 18 23 39 46 79 38 15 15 15 16 21 22 28 32 32 32 33 36 40 42 46 47 48 46 43 39 40 43 47 43 42 44 44 44 48 50
43 26 26 43 25 22 30 23 16 22 66 47 39 20 15 16 17 15 19 21 22 29 29 29 32 36 39 43 45 44 49 48 41 40 40 46 47 45 42 43 44 47 48 50
31 33 25 20 19 22 24 20 18 19 24 39 31 18 14 13 16 15 17 20 19 19 25 28 32 38 40 44 45 43 47 46 47 45 43 45 48 38 41 46 47 49 53 50
31 43 37 40 27 25 29 23 21 18 16 17 16 17 12 13 16 18 17 16 18 20 20 26 30 33 40 42 42 44 44 47 48 47 49 42 41 40 45 47 50 53 56 52
39 52 56 62 34 35 59 36 25 20 17 19 27 22 16 16 14 20 21 20 21 24 23 25 30 34 38 45 50 48 41 47 48 50 43 43 38 41 45 41 42 45 51 55
44 52 72 80 74 74 23 16 15 19 16 14 13 15 14 22 20 18 18 22 24 22 26 27 28 33 37 41 48 48 36 45 52 46 39 39 39 37 37 43 47 52 53 57
32 55 81 98 61 33 23 16 19 22 21 17 18 18 16 18 22 22 23 25 28 30 27 27 30 33 38 41 41 39 41 44 42 36 41 39 35 36 42 47 50 52 54 59
30 43 77 76 91 86 36 22 19 19 45 22 24 26 26 22 54 36 32 29 30 25 26 28 30 34 38 39 40 43 36 38 43 42 40 40 38 43 47 49 53 56 56 53
80 90 91 79 96 64 24 22 23 50 56 30 29 30 32 38 38 37 36 35 30 27 30 34 36 38 37 35 38 47 52 57 50 46 45 43 50 54 47 52 54 56 59 67
73 87 96 86 100 90 22 25 40 45 38 33 33 35 43 41 38 36 31 30 32 31 35 34 37 40 47 47 52 59 61 57 58 60 62 58 49 46 41 56 58 60 65 76
56 48 66 60 66 36 25 29 25 31 35 36 38 34 37 41 39 36 36 37 37 34 32 32 44 55 66 65 64 66 68 61 59 62 56 56 52 48 45 58 64 66 68 84
33 32 55 50 26 24 24 22 24 30 39 36 37 39 42 47 49 44 42 42 36 36 36 45 61 80 85 68 62 54 49 54 59 68 68 59 57 58 61 57 61 66 89 92
42 38 38 40 31 30 29 41 45 44 46 46 44 46 47 47 47 43 41 46 53 63 72 82 83 74 66 52 48 53 56 61 64 61 55 62 71 72 68 60 62 79 78 87
35 37 69 71 49 52 52 48 46 50 49 48 48 50 50 47 49 52 63 68 72 75 69 69 64 58 51 56 55 52 51 52 59 62 68 86 91 88 73 65 69 68 75 79

GFSCGP_sfc_rhum_033.txt.gz
RH
47 41 44 42 36 26 28 24 23 19 13 26 26 25 22 23 36 42 43 47 49 42 40 36 41 51 61 66 82 89 87 94 93 96 97 87 83 86 85 77 73 71 62 66
44 54 34 26 28 30 27 25 25 19 14 19 20 22 20 21 29 37 41 46 45 47 49 46 61 61 67 75 84 91 87 86 92 91 90 74 80 80 74 68 68 64 64 65
47 41 29 26 29 30 31 36 26 22 18 16 16 21 28 22 22 32 36 38 39 48 54 55 66 77 84 89 89 86 87 83 86 88 74 75 75 72 74 72 71 64 60 55
43 34 31 29 29 25 26 28 29 24 25 28 29 44 46 38 33 27 31 39 42 50 52 53 75 86 92 95 94 89 83 81 82 87 80 69 65 64 73 77 71 61 57 52
41 40 40 41 30 26 32 28 27 29 32 46 41 43 40 42 28 33 36 34 42 54 55 57 75 85 88 90 94 92 88 84 80 78 74 62 75 72 72 69 68 69 64 54
30 30 34 39 30 30 27 30 32 39 44 56 36 41 48 53 35 34 30 38 39 53 64 70 77 81 87 94 93 92 86 85 79 61 67 68 65 62 60 60 58 60 60 62
32 30 28 34 34 31 29 36 62 69 80 72 36 42 40 34 34 40 38 36 50 60 73 82 85 86 89 93 92 90 85 67 65 63 57 56 59 59 57 58 61 49 52 57
40 50 37 29 34 32 36 35 67 80 88 73 43 50 34 27 26 33 40 42 52 56 66 80 81 80 85 89 90 83 63 65 62 57 54 58 56 62 60 57 54 53 53 52
51 51 38 32 34 29 37 39 36 69 82 86 48 24 28 26 36 54 54 50 59 62 62 66 74 79 81 76 70 65 61 60 59 58 60 61 59 55 53 52 52 54 51 44
61 61 45 38 33 23 27 26 44 55 54 56 38 39 44 35 45 50 51 59 58 54 56 58 61 69 66 67 68 68 62 60 59 59 62 55 50 50 49 52 48 47 48 49
52 59 61 48 40 31 34 36 35 35 56 66 78 46 29 31 32 46 52 52 54 48 49 51 54 59 60 62 65 65 64 59 60 62 60 58 54 50 48 46 48 48 48 50
50 62 80 52 29 23 25 35 46 70 46 64 79 55 24 24 28 30 38 45 52 46 44 46 47 53 56 58 60 64 66 56 57 60 59 55 54 48 46 48 51 53 51 54
44 46 58 42 36 35 32 28 26 40 62 55 73 55 22 20 23 26 31 33 48 49 46 43 44 48 53 55 59 60 65 54 53 52 51 55 49 47 49 46 48 49 53 54
50 40 46 56 42 36 44 32 30 35 75 59 56 42 27 25 22 23 22 25 41 47 43 43 41 45 48 51 56 58 59 52 48 46 50 52 53 53 44 50 48 48 50 54
44 47 43 35 34 31 31 34 33 30 41 52 44 37 29 28 24 26 26 28 27 27 36 44 45 47 50 52 59 61 59 50 45 46 46 55 56 48 52 52 52 54 58 55
44 58 52 57 40 37 42 35 34 32 31 32 32 34 24 25 24 25 24 24 25 29 30 33 41 57 58 62 66 61 55 51 49 50 54 54 55 50 55 51 48 51 54 58
54 62 72 72 49 44 56 40 33 35 33 32 37 34 33 31 29 30 29 29 32 32 32 32 35 43 57 63 65 64 57 62 61 63 56 57 61 55 51 45 45 50 52 54
66 65 83 83 75 57 40 26 21 24 27 26 26 28 31 30 32 35 35 38 38 35 34 35 39 41 51 71 76 63 59 59 62 58 50 48 50 49 52 48 53 58 62 65
60 76 88 78 84 54 36 31 36 35 38 33 36 34 32 31 34 51 42 41 39 37 37 37 43 48 62 62 52 52 56 58 48 49 50 52 54 51 54 62 70 72 71 63
53 70 74 90 84 72 56 31 30 29 61 42 40 44 43 39 68 65 44 42 42 42 46 45 44 46 50 50 44 52 57 58 62 62 56 58 61 64 69 75 76 68 59 53
90 86 85 96 93 78 47 31 36 50 61 46 42 46 48 54 59 52 47 44 44 42 46 52 60 62 62 60 62 66 65 66 60 61 65 70 72 70 70 70 62 60 64 71
80 94 97 97 98 84 38 36 44 63 52 44 45 50 53 56 53 52 49 48 43 46 54 64 73 74 71 66 68 72 71 62 64 70 73 71 65 61 57 65 62 64 72 76
79 81 87 78 84 62 40 38 44 44 52 58 60 62 62 66 63 59 48 42 46 57 73 76 77 70 66 63 68 77 73 67 74 74 71 70 69 66 61 67 71 74 76 88
55 48 68 58 48 45 42 56 57 59 64 60 57 58 60 63 53 50 56 65 78 81 86 78 76 75 75 68 62 64 66 67 72 79 80 80 80 74 72 73 76 81 94 95
64 52 52 56 51 67 64 64 60 60 60 59 58 58 55 58 62 72 79 82 80 80 77 74 77 76 69 60 63 67 70 72 75 76 76 73 80 82 83 82 83 87 85 91
56 57 74 85 70 70 72 66 64 68 67 64 65 68 65 68 75 76 81 80 71 76 75 73 76 67 63 63 68 66 66 70 77 77 79 93 95 93 88 90 88 80 80 80

GFSCGP_sfc_rhum_036.txt.gz
RH
48 46 47 44 39 36 36 37 38 25 20 33 32 27 31 48 55 60 54 52 53 65 59 57 58 63 64 66 84 88 91 96 87 95 97 97 96 96 94 86 78 76 74 76
45 50 40 34 32 35 34 39 36 26 20 30 32 28 29 40 45 48 48 48 47 49 50 55 58 61 64 71 83 90 86 92 87 88 96 86 88 90 86 81 80 72 72 70
49 38 36 35 31 32 37 38 38 35 23 20 23 32 38 26 39 42 43 41 40 44 48 55 60 68 66 90 93 87 89 88 89 91 90 82 76 81 79 80 77 71 68 64
42 37 36 39 36 34 39 28 28 33 29 25 31 45 44 37 31 42 42 46 45 44 45 62 66 77 81 92 92 89 88 88 86 92 86 73 69 75 79 79 75 68 63 63
34 41 39 39 35 32 37 33 35 30 40 46 40 40 36 46 32 38 37 48 49 48 50 76 75 82 83 95 96 95 90 92 84 86 89 76 78 75 82 81 72 71 70 63
37 36 36 36 33 33 36 35 40 51 49 52 46 44 43 46 30 30 27 39 50 62 70 84 86 90 90 93 95 95 95 91 92 91 89 75 74 77 77 80 78 78 66 66
40 36 35 38 34 34 35 43 64 62 76 62 45 46 40 32 33 35 31 50 54 64 83 94 94 94 94 96 96 96 94 93 93 88 86 77 71 70 70 67 72 64 63 59
45 48 37 38 37 44 43 39 66 59 75 62 49 55 43 30 26 33 40 49 70 76 78 89 92 93 94 95 95 94 94 86 74 70 73 69 57 57 64 60 52 60 57 57
55 50 43 38 39 38 36 44 40 72 85 87 58 34 31 35 40 50 55 52 69 79 90 91 89 89 93 95 94 93 79 70 62 61 62 58 60 60 61 66 67 61 59 52
49 58 45 40 35 35 35 30 45 59 63 70 43 43 45 44 42 58 57 57 68 78 91 92 88 91 90 90 88 80 70 63 61 62 62 60 63 61 60 58 59 50 52 55
52 47 53 51 47 40 36 38 40 43 60 62 74 46 28 38 48 52 55 56 67 69 78 85 84 83 79 76 74 70 65 62 60 57 60 60 51 52 54 52 54 52 53 52
51 63 72 45 40 37 32 38 44 67 44 68 80 52 33 32 39 53 57 57 64 58 62 70 75 78 75 70 66 68 63 60 56 57 55 54 58 66 56 53 56 53 51 55
50 60 67 49 36 40 38 31 37 53 64 57 74 56 28 26 26 34 54 57 59 56 58 58 64 72 71 66 64 65 64 60 60 60 57 55 52 48 49 53 54 54 57 58
47 48 52 61 39 40 47 41 40 43 75 60 62 45 32 29 27 24 30 38 60 59 51 52 54 60 64 63 62 65 70 64 60 54 50 48 48 50 52 62 54 55 58 62
44 47 43 39 40 42 40 37 39 37 43 52 41 43 31 30 31 32 29 30 39 56 55 57 55 58 60 68 63 64 71 68 63 59 60 71 71 58 62 61 59 63 61 59
48 51 53 55 47 42 45 37 38 38 38 43 39 42 36 32 34 34 34 31 35 37 37 41 52 56 62 67 78 75 71 73 66 62 68 68 65 63 61 63 60 60 57 57
55 66 72 70 53 47 62 45 36 36 39 36 41 37 37 35 31 33 40 39 39 39 40 42 45 63 68 73 76 78 70 70 71 68 67 66 61 62 63 58 55 58 63 67
68 72 81 81 69 68 46 34 33 39 37 34 35 37 43 45 50 46 44 44 42 41 42 47 55 59 72 83 79 75 71 74 69 62 60 61 58 58 61 65 65 73 74 70
63 80 88 76 78 58 40 31 32 39 46 42 40 40 39 46 55 54 50 50 53 58 61 64 64 62 64 68 70 69 66 58 57 57 60 60 62 64 67 73 82 79 78 75
67 78 80 94 75 70 52 37 32 38 64 44 48 50 50 48 77 66 54 58 55 56 59 61 60 60 61 60 57 61 66 67 71 71 69 69 71 81 84 83 78 80 76 64
88 89 83 97 84 69 49 37 38 43 49 48 50 51 51 60 62 57 57 55 56 63 67 68 68 70 70 66 64 69 70 73 71 74 78 83 85 85 79 77 77 72 71 74
69 89 93 96 93 69 50 38 44 53 60 54 58 60 68 72 72 60 52 58 68 74 72 69 73 74 69 62 63 70 76 71 70 76 82 82 75 68 67 79 80 78 83 84
71 67 79 76 77 58 48 51 55 56 64 71 77 75 74 73 57 55 64 73 79 81 77 68 65 69 69 67 66 72 78 77 79 75 75 77 77 78 77 83 83 84 85 93
62 67 76 69 69 75 76 68 69 70 69 66 66 66 60 63 68 79 81 82 85 83 73 69 70 72 72 66 68 75 74 74 78 80 83 85 87 86 85 84 87 91 95 94
66 58 61 82 83 72 72 71 68 68 66 67 65 67 71 74 78 80 85 85 82 76 74 72 72 71 67 68 72 73 74 75 77 80 82 84 84 86 89 89 91 92 90 90
61 60 72 78 68 77 82 77 71 72 72 70 73 78 75 76 81 80 86 85 83 77 75 72 73 75 74 73 72 69 69 73 79 82 83 91 95 93 91 92 87 83 86 83

GFSCGP_sfc_rhum_039.txt.gz
RH
48 45 49 43 40 37 40 44 46 35 23 36 36 32 50 58 71 85 83 70 76 83 76 78 78 80 84 84 90 92 95 96 90 94 96 97 95 96 94 87 82 81 82 78
45 49 40 37 40 36 39 38 37 29 27 34 37 36 34 58 62 68 71 61 62 74 81 80 81 83 81 80 86 94 91 94 89 85 96 92 94 95 92 87 85 79 81 73
47 39 39 37 38 38 40 43 42 35 32 28 34 35 32 35 54 58 60 51 54 70 77 78 79 78 79 79 85 91 91 91 88 93 91 92 89 89 88 90 86 79 75 70
46 38 38 40 41 37 43 35 39 39 40 27 33 40 43 37 45 51 52 56 54 62 63 66 70 74 76 79 82 86 90 91 90 90 88 86 86 84 86 87 82 76 74 71
37 45 45 42 35 34 39 42 40 39 38 47 43 40 38 48 40 42 49 52 53 51 55 61 65 70 73 81 90 92 93 93 86 88 88 83 86 84 86 84 78 76 73 71
36 40 40 36 36 35 36 40 44 52 51 55 49 44 43 42 36 36 36 46 51 51 63 62 65 76 82 94 96 97 94 91 87 90 94 85 83 82 86 85 83 81 74 70
42 41 39 42 42 40 38 46 62 62 71 60 48 51 43 31 32 35 38 45 50 58 78 89 91 90 91 96 96 96 95 95 94 92 95 90 91 82 82 76 78 73 71 66
50 47 38 39 41 44 50 44 63 59 70 58 54 62 42 36 35 36 36 44 57 72 69 93 91 90 92 94 93 96 94 93 97 96 96 91 88 85 91 82 76 64 60 59
55 49 47 42 44 35 46 48 43 71 85 84 59 46 30 34 48 59 58 70 80 89 90 92 94 93 93 94 92 94 95 95 94 89 87 81 79 78 86 75 67 60 60 54
45 44 47 46 42 39 39 35 49 61 58 70 53 48 43 38 37 57 62 65 80 91 95 96 96 96 95 95 94 95 95 90 78 75 75 73 78 75 73 68 63 57 57 55
52 40 46 48 46 39 41 43 44 47 60 61 72 54 32 37 38 47 54 57 74 88 93 93 93 93 94 95 96 96 89 78 67 65 71 67 70 63 62 60 54 51 56 55
48 53 59 45 43 38 38 41 44 68 49 72 82 56 34 33 36 51 48 53 69 76 83 89 90 91 92 94 93 92 83 72 62 68 70 72 72 67 58 54 50 55 57 62
53 60 64 48 42 44 44 40 47 56 65 66 76 56 30 31 28 34 54 59 66 71 78 87 92 92 88 85 85 82 80 73 73 67 72 72 65 55 51 58 61 63 64 63
52 58 50 55 44 42 50 44 43 49 78 59 64 46 34 30 31 28 31 47 65 72 69 76 83 89 85 80 81 78 81 80 74 69 66 68 73 65 68 65 66 66 66 64
45 48 49 46 38 42 40 40 44 44 46 54 45 51 38 34 31 31 30 36 56 69 64 66 68 74 79 87 88 85 90 86 74 70 70 75 74 64 68 71 72 72 70 67
51 54 49 58 49 44 47 40 42 43 44 44 45 43 39 38 42 42 41 43 45 45 44 51 61 61 63 72 81 85 87 84 76 75 79 74 71 70 70 70 72 72 66 63
54 66 69 58 59 53 64 50 43 40 41 40 45 38 38 39 38 46 46 43 44 45 48 51 53 66 69 78 84 89 84 76 75 81 79 74 70 70 68 62 64 66 72 82
66 70 79 80 70 73 45 43 38 44 44 38 40 39 45 49 54 50 49 48 47 51 60 69 75 81 91 90 85 79 75 77 77 78 74 71 67 67 65 65 72 82 94 94
64 80 85 76 78 59 46 39 40 39 45 44 46 51 55 58 59 59 53 60 64 67 68 69 69 75 83 84 80 72 67 65 67 69 68 68 71 74 77 80 92 94 86 82
66 76 80 89 76 76 56 44 36 40 61 44 49 51 56 56 66 70 64 62 70 72 72 72 71 69 69 69 66 71 74 74 74 70 71 73 80 91 94 94 86 85 82 81
90 90 87 97 84 71 49 41 36 45 50 53 53 54 58 58 62 69 68 75 75 75 74 74 74 74 71 69 70 76 74 78 78 84 89 91 90 90 88 84 83 80 80 82
74 89 91 93 82 68 51 45 40 49 64 58 58 62 75 82 68 69 74 79 76 76 74 73 76 78 75 73 73 82 85 79 79 83 86 85 78 70 68 83 86 84 86 86
63 70 80 72 72 57 64 47 59 61 60 67 68 75 73 68 68 75 83 82 80 79 78 73 76 75 72 69 69 78 82 79 78 75 78 80 81 82 83 89 90 89 88 93
68 68 73 69 74 80 80 79 76 74 76 75 77 74 62 72 78 84 83 86 86 86 81 74 67 67 73 71 72 74 74 75 80 84 85 86 89 88 84 88 89 93 95 96
71 68 79 91 88 79 78 78 74 73 73 75 74 73 77 80 82 84 89 86 84 82 75 68 69 71 71 70 73 76 80 80 80 81 84 86 86 85 86 88 89 89 90 90
68 70 80 84 77 72 82 80 74 74 78 77 79 83 79 80 85 82 86 84 80 82 73 73 74 75 78 81 86 88 87 86 85 84 84 91 93 92 88 87 83 81 87 86

GFSCGP_sfc_rhum_042.txt.gz
RH
53 47 51 44 42 41 41 44 46 42 30 46 46 43 64 68 75 91 94 94 94 89 78 81 85 88 93 94 94 94 96 97 96 98 98 99 98 92 86 83 87 86 83 80
45 54 41 41 41 46 39 41 43 36 33 38 42 44 55 70 67 76 82 86 85 87 90 87 90 92 93 92 91 95 94 97 94 89 96 94 96 95 81 81 86 86 81 80
48 38 41 43 41 39 42 44 45 38 36 31 40 43 39 50 65 70 74 71 72 77 90 89 91 91 92 93 92 94 94 95 92 92 91 96 93 91 86 94 93 85 81 74
48 41 42 46 43 37 44 37 42 43 42 38 37 40 44 43 60 64 67 73 68 64 78 85 87 91 92 92 92 93 94 94 92 92 84 88 86 95 92 86 82 84 79 75
42 49 48 47 40 36 37 42 44 46 46 50 45 41 35 51 50 59 57 63 61 57 68 80 84 84 86 93 94 96 96 94 90 90 84 86 92 91 91 91 85 86 83 78
41 43 42 39 40 38 38 40 44 53 53 59 49 47 44 47 39 39 46 52 53 56 68 71 76 81 89 94 95 96 96 95 91 91 94 90 93 93 93 95 90 86 83 81
47 44 41 43 43 43 42 48 63 61 71 62 51 56 48 35 36 37 41 44 49 52 70 74 79 87 91 93 95 96 95 95 93 94 94 95 94 89 88 89 89 85 78 75
48 48 42 42 38 42 47 46 66 58 69 54 53 59 39 40 43 49 42 40 53 63 67 71 71 84 89 91 95 96 94 92 95 95 94 96 89 89 89 88 87 77 67 66
57 48 49 46 47 41 46 50 45 73 84 84 59 48 30 45 56 56 56 63 64 78 76 76 84 87 93 94 94 94 95 94 95 94 94 92 90 91 93 90 87 79 72 62
44 44 50 48 48 45 44 42 52 64 60 63 56 52 44 34 40 60 57 64 80 88 90 94 94 94 94 92 92 94 94 93 93 96 96 96 95 94 94 90 81 72 68 58
48 39 43 54 48 43 48 48 50 50 62 60 69 52 39 32 38 47 54 59 68 86 94 96 96 94 92 92 94 95 96 95 98 95 95 96 94 90 91 84 81 73 65 61
48 47 50 39 46 42 41 44 48 69 52 72 80 57 36 32 35 38 43 53 63 82 91 94 95 97 97 96 95 96 95 96 95 92 89 94 92 87 86 83 72 67 68 67
51 54 54 44 42 48 48 45 50 59 68 67 77 56 32 35 30 31 40 51 61 74 85 92 96 96 96 96 96 96 96 96 93 91 89 90 88 81 82 77 75 64 66 71
49 58 46 46 41 44 57 46 53 53 76 63 64 47 36 33 34 32 32 38 60 71 74 85 93 95 95 94 96 96 96 93 92 86 87 87 84 80 78 71 67 72 70 69
46 50 54 47 42 43 43 44 49 48 50 54 47 52 40 39 34 33 35 56 61 79 82 78 80 86 92 92 93 93 92 93 92 89 88 86 85 78 78 73 77 76 77 72
54 54 54 67 52 49 55 46 50 49 50 49 48 45 40 43 49 49 51 51 51 53 54 59 65 69 72 82 91 93 93 93 84 84 85 81 79 74 75 76 72 73 78 84
55 66 66 58 60 54 65 52 46 46 48 45 55 44 41 45 48 54 50 49 52 59 66 72 80 91 93 92 87 92 94 89 88 88 82 77 73 72 73 69 72 79 84 92
67 66 74 80 71 66 46 49 46 49 46 43 42 42 41 46 52 53 54 55 62 71 73 74 82 90 94 92 90 87 85 88 88 85 78 73 71 70 69 75 84 93 96 96
68 76 82 75 78 57 50 44 45 44 40 43 45 55 59 61 63 68 66 71 75 77 77 79 77 77 76 75 73 74 75 76 76 78 75 70 71 76 81 89 96 98 99 95
67 75 74 86 76 76 57 48 37 38 51 45 54 63 66 62 65 74 71 75 80 80 81 80 77 76 78 79 74 75 78 80 82 80 80 82 88 93 96 96 93 87 84 83
89 89 82 96 84 75 56 43 40 47 51 52 54 62 64 57 60 78 81 81 80 80 79 75 76 80 83 79 74 82 85 92 89 87 90 91 91 91 90 88 86 83 83 87
79 88 91 90 86 76 48 48 45 50 69 59 58 61 66 80 79 83 80 79 78 82 82 80 81 82 81 84 84 91 93 88 83 84 84 81 77 74 74 84 88 88 90 90
70 72 79 73 74 60 58 49 51 56 60 61 63 75 74 77 80 82 84 82 83 84 85 80 81 84 83 82 83 89 87 78 76 79 80 83 85 86 89 90 91 93 91 96
72 67 72 67 65 70 76 78 77 78 73 76 81 73 68 78 83 87 86 86 85 85 80 76 75 79 83 79 75 77 77 76 78 83 85 88 89 88 86 87 90 94 96 95
72 68 78 77 86 85 77 80 78 81 80 77 76 74 76 81 86 89 91 88 85 81 77 74 76 77 78 79 86 88 91 86 87 86 88 90 91 92 91 91 93 92 92 93
74 71 77 68 64 64 68 81 79 81 83 80 81 86 83 81 88 86 90 86 80 83 81 78 76 82 88 90 94 93 92 94 94 92 93 97 98 98 94 92 86 82 86 84

GFSCGP_sfc_rhum_045.txt.gz
RH
40 35 37 34 35 30 31 33 31 28 25 36 40 37 39 69 75 72 65 70 71 68 58 62 68 70 66 68 73 73 80 82 79 77 82 78 78 82 74 70 73 72 63 63
37 42 35 34 36 36 35 33 32 29 26 30 29 27 32 59 67 64 62 66 65 64 66 66 69 71 72 69 71 74 75 78 78 70 76 69 72 73 66 76 82 79 70 64
41 31 37 37 34 37 34 33 34 32 30 26 29 27 31 50 56 57 62 61 61 62 66 69 72 73 72 72 71 72 72 74 78 74 70 72 72 71 69 72 74 70 68 65
39 35 36 36 36 32 36 29 32 33 32 30 27 26 29 35 54 57 53 61 61 58 61 62 69 71 71 75 74 72 74 75 76 78 71 73 67 70 69 77 71 72 70 65
37 38 40 40 36 33 33 35 34 34 34 38 34 30 26 36 35 47 51 54 58 56 55 59 63 66 68 74 82 78 77 76 76 77 73 72 70 70 74 77 74 72 72 65
34 34 35 35 33 34 33 34 38 42 40 44 37 32 30 28 29 29 32 46 50 53 60 56 57 62 69 79 84 84 81 78 77 79 79 77 79 80 79 81 79 76 67 61
37 36 32 35 34 35 33 36 45 51 55 50 44 43 32 27 27 29 30 30 41 50 55 53 60 70 70 79 81 81 78 79 80 83 82 81 79 76 74 76 87 84 71 67
37 36 35 37 33 35 40 37 55 48 53 42 45 43 23 29 27 38 42 39 34 46 52 51 56 63 69 75 76 80 78 76 80 86 82 80 78 79 78 81 86 83 74 69
48 39 35 38 35 32 38 41 37 60 69 63 41 34 25 31 31 36 40 42 41 44 49 51 53 60 66 73 77 82 79 74 80 84 82 81 81 82 88 89 86 83 79 70
43 40 40 40 36 38 35 35 46 52 56 56 41 40 25 26 27 34 38 41 45 54 60 59 58 62 64 69 74 77 75 74 75 79 82 82 82 82 85 87 83 83 76 66
41 37 38 42 41 36 42 41 44 40 47 48 48 35 34 28 26 31 36 41 46 56 61 65 66 65 65 70 72 75 72 72 74 78 81 83 85 84 85 89 88 83 75 64
41 48 50 36 37 34 35 40 42 57 47 56 58 42 28 31 26 30 29 40 43 50 58 66 69 73 73 72 71 73 76 77 75 80 86 88 88 90 91 92 88 82 74 67
48 47 46 35 35 37 39 38 42 50 58 55 75 42 27 29 28 26 29 32 44 50 60 68 71 75 76 79 80 79 80 78 79 82 81 82 83 85 86 86 82 78 74 66
46 50 45 39 37 38 48 43 43 45 60 52 50 38 30 27 27 25 27 29 27 50 59 67 73 74 76 79 79 83 87 86 83 78 76 79 81 82 82 75 70 68 63 66
46 47 49 38 32 37 37 39 45 40 43 51 40 40 31 30 29 28 31 41 51 58 59 61 63 68 75 77 77 78 80 80 77 76 76 80 75 68 66 64 70 70 74 73
49 50 53 47 43 39 43 38 42 42 40 40 37 38 30 30 30 35 42 46 46 50 56 63 65 62 64 69 73 80 79 77 73 74 71 67 64 67 75 75 77 82 82 76
56 63 60 53 49 44 64 50 42 41 41 39 46 36 35 34 36 42 44 45 52 58 60 65 72 74 73 75 77 79 76 73 71 70 66 67 69 72 73 73 76 79 87 89
62 63 66 73 67 73 40 38 36 41 40 37 37 32 33 34 42 44 42 50 58 57 63 68 70 71 70 68 71 72 69 71 70 67 64 64 68 70 71 81 87 92 95 95
57 68 76 79 62 49 37 38 41 42 30 34 35 35 38 48 50 56 60 59 61 65 67 68 65 65 64 64 64 65 65 64 64 64 62 61 64 72 80 87 93 95 94 89
65 64 69 74 72 70 51 36 35 30 45 34 37 47 50 51 54 50 62 64 67 66 64 65 65 63 63 63 62 65 66 67 70 69 67 65 71 81 84 90 92 90 73 68
78 78 73 78 82 62 46 37 37 49 45 42 42 49 53 48 49 61 67 69 65 63 65 65 64 65 64 64 65 69 69 72 69 69 73 80 87 90 86 81 71 64 63 67
72 79 85 78 90 68 45 38 45 47 45 48 51 54 59 67 73 70 68 70 68 66 65 64 68 70 69 64 65 70 77 72 69 70 71 68 66 62 61 66 65 64 66 71
76 66 70 60 63 54 47 44 42 44 44 52 53 55 63 73 71 70 71 70 68 64 65 63 66 71 69 66 64 68 65 59 61 62 64 65 64 62 62 62 64 62 63 70
66 63 70 65 55 53 55 54 58 51 50 50 50 55 60 67 71 71 70 70 67 63 64 63 66 68 71 67 68 70 68 63 62 67 70 69 68 67 65 62 61 63 70 74
67 67 70 65 59 70 62 64 58 63 68 65 61 60 63 69 70 69 71 68 64 64 64 63 67 72 78 77 80 78 72 67 68 69 67 65 62 58 51 47 53 56 56 72
65 64 73 68 52 56 46 54 68 71 69 65 67 71 67 66 71 69 70 66 65 69 67 68 73 76 74 72 69 68 64 60 60 57 52 62 58 58 52 50 49 62 70 69

GFSCGP_sfc_rhum_048.txt.gz
RH
26 25 24 18 19 17 19 19 17 18 20 26 23 19 19 37 45 42 36 37 40 43 40 46 45 43 42 46 53 55 62 63 72 56 50 42 48 50 55 53 57 59 53 55
29 28 21 23 25 24 24 21 20 20 21 22 16 16 16 30 38 37 32 33 33 36 40 44 48 45 45 46 50 52 52 54 60 51 46 42 40 44 46 51 59 60 58 54
24 22 25 25 26 26 26 23 22 21 21 19 20 17 19 25 32 36 34 30 30 32 40 44 46 50 52 48 51 47 47 49 56 55 49 45 45 50 52 55 65 65 74 60
23 20 26 25 25 24 27 20 22 23 23 22 20 20 16 20 28 36 38 38 37 34 34 37 44 48 50 51 48 47 48 49 53 58 52 52 44 49 51 54 52 53 60 60
23 27 29 27 24 23 23 22 23 24 22 24 21 21 17 22 20 24 29 32 35 32 32 33 37 42 45 47 50 49 47 48 51 55 57 53 49 42 46 55 59 62 63 60
20 23 23 21 24 23 23 26 26 26 25 35 20 21 17 14 15 14 16 24 29 32 33 30 31 36 40 44 51 55 51 50 51 56 61 61 59 51 49 61 63 61 63 63
23 22 20 24 26 27 25 27 36 41 41 40 27 26 18 15 16 18 19 17 19 27 33 34 32 36 42 48 55 58 54 51 51 56 59 63 66 64 62 61 62 64 66 75
25 29 23 21 21 23 26 25 37 46 43 32 31 28 17 17 17 20 24 25 25 23 27 31 34 35 39 48 55 57 57 57 51 60 62 62 69 72 65 60 64 72 77 76
25 22 21 24 23 20 30 32 24 37 51 46 24 21 16 17 18 18 22 25 25 24 24 28 29 33 39 46 55 58 54 50 52 68 68 72 81 79 72 68 76 82 80 75
25 27 27 30 26 29 27 24 36 33 46 42 26 25 16 16 16 16 16 20 26 31 30 29 30 33 37 42 51 57 56 52 52 58 69 70 72 72 71 72 81 79 78 72
20 24 36 33 32 26 32 31 30 28 32 39 37 25 17 15 16 19 20 20 22 30 35 37 37 37 39 42 47 54 54 51 52 55 59 68 71 74 73 78 79 76 77 75
22 26 31 26 25 24 20 23 27 38 33 35 39 29 15 16 18 20 19 21 24 27 33 39 42 44 44 47 47 49 50 48 49 53 58 63 68 74 78 81 83 84 84 79
27 30 35 30 28 27 25 24 23 28 36 34 59 30 18 19 20 18 18 20 26 30 31 37 43 45 47 49 50 50 55 54 54 55 60 67 76 85 88 90 90 89 88 80
36 25 28 33 23 19 29 25 22 26 40 32 34 24 19 17 17 16 18 18 19 24 33 37 43 46 50 53 55 57 64 65 67 66 68 75 80 82 84 84 82 81 75 75
30 29 27 20 17 16 18 17 22 25 26 31 27 23 20 18 17 16 19 24 27 28 37 41 42 45 49 55 58 59 66 67 66 69 70 77 76 73 69 66 63 64 65 66
31 30 28 31 22 21 22 18 17 21 19 22 23 22 17 17 18 21 22 27 32 38 43 44 44 46 48 51 52 61 61 62 60 61 62 61 59 57 62 64 66 66 71 69
41 36 38 36 30 30 54 34 23 22 25 26 28 22 17 20 22 22 26 30 36 42 44 45 45 47 49 54 56 58 58 57 57 58 57 57 57 59 62 57 58 63 70 82
46 44 44 48 69 83 24 24 21 23 22 20 21 19 18 19 20 26 27 34 38 40 45 47 47 49 50 52 54 55 52 54 55 54 54 54 54 56 57 60 65 77 82 86
42 45 57 79 50 30 30 30 29 31 24 18 20 18 16 25 32 40 35 34 38 43 45 46 46 48 49 49 49 50 50 50 50 51 51 51 53 57 58 67 78 81 88 88
47 50 57 62 58 81 29 21 22 23 36 17 18 22 22 31 42 27 43 44 48 45 46 48 48 47 49 49 47 49 50 52 54 53 51 52 55 60 66 80 88 85 70 52
69 67 76 62 71 41 27 25 24 39 36 21 20 23 30 36 27 37 44 47 43 45 48 48 46 49 50 48 49 51 52 55 52 53 57 62 67 71 74 69 54 48 47 50
60 68 83 61 88 76 30 28 31 27 34 26 30 28 36 36 47 47 47 47 47 48 49 47 52 53 50 46 48 51 55 54 54 56 59 58 54 45 42 46 45 43 45 52
56 47 50 46 45 33 33 26 25 28 25 32 30 30 34 50 48 47 49 49 48 46 46 46 50 53 51 47 47 53 54 51 52 49 47 46 44 43 43 45 49 46 49 56
45 48 58 54 30 33 35 27 30 28 28 27 28 32 42 46 48 49 50 50 48 44 45 46 52 54 56 51 47 47 45 41 43 48 50 49 50 47 45 39 36 35 45 50
38 50 46 45 36 44 39 35 29 34 39 38 31 36 40 44 48 48 50 50 46 46 49 48 53 56 56 52 52 47 44 44 44 48 46 46 44 34 29 28 35 43 50 62
42 45 58 53 34 44 29 29 34 39 42 39 38 42 40 43 47 47 50 48 48 51 50 52 54 54 53 53 52 48 44 42 43 40 36 48 44 43 33 30 32 71 67 63

GFSCGP_sfc_rhum_051.txt.gz
RH
18 20 20 17 15 13 13 13 12 13 16 18 22 17 28 26 27 30 30 30 31 36 34 41 44 45 44 42 49 52 57 59 61 52 49 40 48 44 42 47 51 55 55 58
20 24 16 16 17 17 16 17 14 16 15 17 20 17 17 21 26 25 27 28 29 30 34 40 45 43 44 44 47 48 48 49 58 51 43 38 37 37 36 40 48 48 55 53
23 18 17 19 18 17 17 19 19 19 26 13 14 15 12 13 19 22 21 22 22 27 32 39 40 41 45 43 46 44 46 48 59 53 41 38 35 36 38 40 45 52 56 53
20 15 19 20 20 16 20 15 18 17 17 19 18 21 23 14 18 22 22 21 21 23 27 32 39 40 41 41 43 43 43 42 42 45 43 45 39 37 38 42 43 52 61 66
20 18 21 22 20 16 18 18 18 17 19 20 26 19 23 14 16 18 23 23 22 22 24 29 34 37 38 41 43 45 42 40 39 43 48 46 47 39 38 43 56 60 60 60
16 13 16 18 16 17 16 21 20 20 21 32 20 21 20 19 13 13 14 18 22 22 23 24 26 30 34 37 44 45 42 39 40 42 49 51 50 47 38 44 57 59 57 58
19 19 16 17 21 21 19 23 36 40 35 39 20 17 16 31 13 12 13 12 16 20 23 23 23 27 32 39 44 45 42 39 40 43 47 52 51 51 50 44 57 60 63 62
24 26 19 17 19 24 22 22 38 55 48 36 24 22 15 14 13 12 13 15 15 16 21 22 22 24 29 36 41 44 42 42 40 55 58 53 52 52 56 59 55 59 63 64
23 21 13 14 16 16 23 26 19 31 36 44 24 17 19 13 11 13 13 16 17 18 18 19 22 24 27 36 43 48 45 43 44 65 86 79 65 61 66 68 65 66 70 75
18 24 15 17 16 17 20 21 30 30 50 50 22 20 18 16 14 12 12 14 18 21 19 19 20 23 27 30 41 47 49 47 46 47 59 58 58 68 69 70 74 74 77 75
16 21 23 24 26 23 25 28 25 25 30 52 39 24 15 14 13 14 14 13 14 20 25 25 24 23 24 26 34 43 46 46 43 43 52 63 70 70 80 81 84 84 77 73
18 23 31 28 18 16 19 24 25 38 37 31 36 30 14 14 13 14 14 14 14 15 23 29 30 32 31 33 35 41 46 46 43 45 50 63 76 79 84 88 88 90 87 86
21 25 34 27 25 21 24 22 21 25 27 35 61 32 14 13 14 13 14 13 15 18 19 26 34 36 36 39 40 42 45 43 42 43 47 64 82 82 89 91 92 92 91 90
39 24 28 33 25 21 26 21 18 22 43 34 28 22 18 16 15 14 13 14 14 19 20 21 28 35 38 41 43 43 48 48 49 49 52 74 83 84 87 89 88 87 81 80
33 30 24 20 16 16 17 18 18 19 22 31 25 19 17 15 14 14 13 14 14 15 18 23 26 31 37 44 47 50 64 66 65 71 75 82 79 75 74 76 75 75 74 72
25 33 28 26 18 16 18 15 14 14 16 17 17 17 13 12 12 14 16 16 17 18 20 24 29 34 42 47 50 58 58 58 59 60 62 61 59 58 61 63 65 63 64 62
38 37 33 40 22 22 39 22 16 15 14 16 22 17 14 14 13 14 15 16 19 24 29 34 36 40 43 48 52 54 53 52 53 54 54 54 55 57 58 53 53 56 60 65
42 36 38 54 66 67 26 16 16 18 16 14 15 14 14 12 12 14 15 18 25 31 36 38 39 41 42 42 46 48 45 48 50 50 51 51 52 52 52 55 60 65 68 68
36 45 59 68 53 29 20 20 21 21 19 13 14 14 13 12 18 23 21 22 30 33 34 35 35 39 40 41 41 42 43 44 46 47 48 48 50 54 55 59 65 69 73 81
32 43 63 59 58 64 32 19 16 16 33 15 14 16 16 16 35 21 27 29 32 33 34 36 38 38 40 40 39 41 42 43 46 47 46 47 50 55 67 75 80 79 65 51
67 66 80 67 64 38 20 16 16 39 37 16 15 15 18 20 22 25 30 35 34 34 36 38 38 40 41 40 41 43 46 48 46 47 51 57 61 65 68 67 56 47 44 44
68 66 85 67 72 75 27 22 30 27 24 20 20 19 23 22 34 36 36 36 35 37 39 37 42 44 43 40 42 44 47 46 48 51 54 55 54 46 43 44 41 37 40 49
57 53 58 45 43 33 32 28 22 19 20 24 23 20 22 33 36 36 37 37 37 37 36 38 41 45 44 40 42 46 49 48 52 51 48 45 39 35 34 37 42 38 42 50
32 30 46 45 34 28 29 27 22 22 23 21 21 21 25 36 36 37 37 38 38 35 37 38 44 46 48 44 43 47 46 43 43 43 42 40 39 39 36 31 26 29 44 47
30 28 37 38 29 25 24 30 32 24 24 24 24 23 26 34 36 37 38 39 36 36 38 42 46 49 48 44 43 39 37 37 37 39 38 39 36 30 26 27 32 43 58 61
26 36 53 51 25 40 36 28 31 27 27 31 28 27 30 32 36 36 39 38 36 39 43 44 47 48 46 44 42 39 36 34 37 37 36 46 44 39 27 26 42 68 64 66

GFSCGP_sfc_rhum_054.txt.gz
RH
19 21 22 19 19 18 15 14 14 17 18 19 25 23 43 37 26 28 30 34 37 41 44 49 50 52 52 55 60 59 62 63 62 67 65 63 68 58 58 56 61 73 72 75
21 25 18 15 16 18 17 17 16 12 16 16 14 17 37 36 52 27 29 32 35 36 43 51 51 52 56 61 60 59 58 55 57 65 64 58 58 59 54 54 67 71 75 73
24 19 17 16 19 18 17 16 16 21 22 16 15 15 13 30 36 23 26 27 29 34 43 48 51 55 55 60 64 61 60 59 64 65 58 53 51 53 54 52 59 65 70 70
20 16 18 20 20 17 20 12 14 19 22 22 19 24 15 15 18 22 23 26 28 30 37 44 48 52 54 54 56 54 55 56 59 61 59 57 51 48 51 53 59 61 73 75
22 19 19 22 19 17 18 18 19 16 18 20 20 27 20 17 18 20 24 23 25 27 34 41 44 47 48 50 54 54 53 51 53 60 62 67 57 54 51 61 63 64 75 77
18 13 15 17 16 16 15 19 21 20 22 35 20 24 30 21 21 19 19 21 22 23 30 35 40 40 44 47 53 56 54 50 50 59 62 64 66 60 58 61 64 75 76 79
19 17 14 15 19 17 18 23 38 44 43 45 21 23 22 24 22 16 20 19 22 23 26 30 36 40 42 46 51 54 52 50 50 53 56 60 68 68 61 64 64 73 75 78
25 29 16 16 20 23 24 25 40 57 68 46 38 32 20 18 17 14 13 17 18 23 26 27 29 36 40 46 50 51 48 50 47 53 57 69 62 71 78 73 62 74 70 76
27 24 14 16 16 17 26 30 22 32 44 60 43 31 22 18 15 12 13 14 18 21 23 26 25 29 36 43 50 54 49 46 46 54 66 68 84 90 94 85 78 83 80 85
23 31 17 16 15 17 19 20 34 30 57 60 30 27 27 19 15 13 14 17 19 22 24 24 23 28 32 39 47 53 52 48 47 54 66 71 79 86 86 85 82 85 93 93
20 27 25 17 20 21 21 26 31 28 31 54 56 35 27 21 16 15 17 16 19 24 27 27 27 28 28 34 41 52 51 49 57 70 74 74 82 76 78 85 88 88 93 92
21 30 33 22 16 16 18 24 28 46 40 40 61 44 17 22 16 17 16 15 21 20 27 30 31 31 33 35 40 47 52 54 65 71 77 73 73 79 88 93 95 95 93 91
23 30 40 29 25 21 22 22 23 28 32 43 82 45 15 16 15 15 17 16 17 20 25 31 35 36 37 39 41 49 55 54 62 69 79 81 90 94 97 96 96 96 95 93
34 30 32 41 40 27 29 22 26 31 53 46 47 35 25 17 17 14 16 17 15 20 20 27 35 38 41 44 47 50 57 59 67 83 83 90 92 95 96 95 94 92 90 91
34 37 33 24 20 22 23 22 22 24 24 51 44 26 19 17 21 23 26 18 16 16 19 23 32 39 43 48 50 52 71 74 76 81 85 90 89 88 88 87 86 84 83 83
31 40 34 36 22 22 23 19 18 18 18 18 19 22 16 15 15 23 23 17 17 17 16 18 25 35 43 48 53 70 75 76 74 76 81 79 78 79 80 81 80 78 78 81
41 40 40 48 29 27 38 25 19 17 17 17 23 20 16 15 14 15 15 15 17 18 20 24 28 37 47 54 70 68 67 68 68 70 69 67 68 71 73 69 69 72 76 80
39 43 43 61 66 60 27 18 17 20 18 14 13 13 13 14 13 13 16 20 21 23 30 35 45 54 62 64 58 61 57 60 62 61 60 61 63 62 61 65 71 79 81 83
40 54 71 70 59 38 26 23 22 25 23 16 16 14 12 12 19 23 21 24 29 35 39 42 44 48 52 53 54 53 55 54 56 57 58 56 58 61 65 68 77 84 83 86
42 52 74 78 67 71 48 24 17 20 38 19 17 20 18 17 38 28 27 27 35 36 37 40 42 45 47 48 47 50 51 52 53 54 53 55 58 64 80 81 83 86 81 69
75 80 91 78 78 52 26 22 21 42 44 26 20 21 24 27 28 31 30 34 32 34 36 40 42 44 45 44 46 48 49 52 49 51 55 62 68 72 75 80 76 73 62 66
69 85 92 77 85 81 29 26 33 35 35 30 26 28 35 30 37 35 33 34 35 36 37 39 43 46 45 42 45 48 52 49 53 59 63 66 67 62 60 62 57 50 62 73
68 54 74 55 55 49 42 36 33 35 36 34 32 26 28 41 37 35 38 39 37 36 40 38 43 48 47 44 46 50 53 54 58 60 61 58 50 46 44 52 56 58 64 74
44 37 54 55 37 37 44 42 37 30 35 27 26 25 32 42 39 39 39 39 39 37 39 39 47 50 52 48 46 52 53 54 56 55 52 47 47 46 46 38 39 58 75 81
39 34 45 42 38 37 35 30 44 37 36 31 28 30 30 35 38 38 39 40 39 39 40 44 50 53 52 50 52 50 50 49 46 48 46 50 52 44 40 47 54 75 72 79
26 30 44 58 40 49 42 43 37 31 30 33 35 35 31 32 38 37 40 40 39 40 44 48 51 53 50 49 48 45 43 42 47 47 51 70 68 61 42 47 53 73 71 67

GFSCGP_sfc_rhum_057.txt.gz
RH
28 36 36 31 27 24 23 25 25 22 24 24 46 59 54 49 66 66 61 58 57 73 73 73 73 72 75 78 81 83 81 79 78 73 68 60 64 57 77 70 62 77 78 82
30 34 26 22 21 22 24 26 26 20 22 27 32 59 49 54 56 53 50 56 54 63 71 69 70 70 68 72 72 76 70 68 64 60 60 64 61 59 60 66 70 74 79 76
34 29 22 22 23 24 25 27 26 24 29 27 28 35 51 46 56 46 59 46 48 64 64 65 65 66 63 69 70 64 65 62 61 58 62 75 72 73 69 62 70 77 80 80
30 23 24 24 25 24 27 22 19 20 31 40 27 42 32 54 60 66 52 42 46 60 60 58 60 64 60 63 62 61 60 60 58 64 69 69 66 63 62 63 60 71 84 82
30 28 27 27 26 23 26 25 28 27 32 34 31 41 34 42 55 63 49 39 43 53 60 60 58 58 59 62 63 59 61 56 53 56 67 71 67 60 57 61 69 67 76 79
25 19 21 23 21 21 21 29 28 33 36 52 34 36 39 33 24 31 32 37 37 44 54 55 55 54 56 59 66 65 65 63 56 60 68 72 79 70 64 64 69 82 87 84
28 25 20 18 23 24 25 30 56 64 62 63 36 40 34 28 29 24 30 30 33 37 50 53 54 57 57 56 62 64 62 65 64 66 67 68 78 80 76 64 70 93 91 93
38 43 24 20 22 26 29 35 65 63 76 63 47 49 34 28 25 21 20 23 27 34 42 49 51 52 53 54 57 59 58 58 57 60 66 71 70 71 74 78 86 84 82 83
39 34 20 17 20 23 34 41 33 46 58 73 57 44 32 29 25 25 18 21 27 33 35 43 47 48 48 53 54 58 57 55 56 58 71 70 70 75 83 81 80 92 92 93
32 43 23 20 20 24 26 28 45 46 66 71 50 47 46 31 26 21 22 25 25 30 33 35 42 47 45 46 50 52 55 58 55 55 59 60 78 82 92 94 94 92 95 96
23 34 36 24 26 28 33 32 36 43 57 70 70 55 36 34 29 22 20 21 28 32 32 35 38 38 42 44 47 51 50 55 61 61 65 64 86 91 96 95 92 92 96 96
26 36 40 32 23 20 23 30 34 69 60 61 72 61 29 29 25 21 19 20 25 35 34 35 37 40 46 41 45 50 54 61 63 66 86 92 94 97 97 96 96 97 97 97
31 32 50 41 29 23 25 26 27 34 56 58 82 67 29 26 22 21 22 21 23 37 40 42 45 46 48 53 44 49 59 68 75 86 85 91 87 90 95 99 99 98 97 97
34 35 34 47 44 32 39 27 25 35 64 53 68 52 37 35 28 18 26 27 24 28 40 45 49 49 52 56 69 83 91 87 84 90 94 97 98 98 98 98 97 96 94 95
37 37 31 32 30 28 31 32 28 30 35 52 48 43 34 31 28 26 27 27 26 25 39 45 51 55 59 66 86 88 91 93 94 97 97 98 98 95 93 93 92 92 93 94
41 52 40 38 30 32 36 34 31 26 32 34 36 38 28 24 25 26 24 27 24 20 26 39 45 52 58 74 87 88 90 93 92 94 94 90 90 90 90 89 90 90 88 88
68 58 61 53 36 35 53 37 31 32 26 27 33 29 23 24 22 28 24 24 25 23 21 25 50 55 61 81 87 90 87 84 88 90 86 84 85 86 86 79 79 83 88 92
97 74 68 80 66 67 40 28 26 27 25 22 22 21 20 19 19 21 22 23 27 26 36 63 66 80 82 84 83 82 77 83 83 79 79 82 80 82 77 81 89 93 92 92
84 84 89 72 66 50 37 29 34 32 33 22 23 22 20 19 26 35 28 30 38 46 58 70 78 83 83 77 73 73 73 73 73 74 75 72 72 76 80 85 86 92 92 89
86 85 89 96 84 70 56 38 31 30 46 28 30 28 28 26 41 36 35 47 55 58 58 63 68 70 75 80 71 71 71 70 73 71 68 68 72 79 88 87 86 87 90 84
97 99 99 100 99 77 42 32 34 50 54 32 30 31 34 36 40 36 48 53 52 54 57 62 62 66 67 63 63 67 68 69 66 65 71 80 83 85 88 89 91 92 85 73
82 92 98 96 100 92 52 41 40 44 36 36 33 32 30 44 45 45 49 48 49 53 57 58 63 65 65 59 59 64 67 62 68 75 79 80 82 77 78 86 86 74 78 85
84 70 85 76 84 64 57 65 61 61 62 42 43 43 49 56 49 49 52 52 51 53 58 58 63 65 64 61 58 64 70 71 74 77 79 79 75 73 76 66 75 80 83 85
53 53 67 68 58 45 43 54 54 61 61 59 40 52 62 63 58 58 53 53 53 56 58 60 64 68 69 65 61 68 69 68 72 76 76 74 67 62 55 58 64 69 80 83
58 51 55 61 55 54 42 44 52 52 59 50 51 38 50 61 58 56 56 56 54 52 59 60 67 72 71 67 68 65 65 64 64 61 59 60 59 57 66 70 66 70 80 82
46 44 72 83 61 59 52 53 53 58 48 52 47 50 42 51 54 53 57 57 56 58 64 65 71 69 68 66 68 67 62 56 59 59 60 75 73 63 54 66 67 69 70 66

GFSCGP_sfc_rhum_063.txt.gz
RH
35 39 40 32 35 34 34 38 39 33 26 44 49 46 51 71 82 78 96 99 98 97 93 94 80 81 85 86 89 88 88 89 83 88 82 86 88 82 78 73 73 81 85 87
38 38 31 30 34 35 37 39 37 31 26 38 40 43 52 73 69 65 85 95 95 94 98 96 96 94 94 88 88 85 86 96 89 80 76 77 71 75 71 76 77 76 83 84
42 34 27 30 35 35 37 38 36 33 30 35 50 49 54 53 62 70 72 78 80 89 96 96 96 97 86 92 89 84 92 93 90 82 71 76 74 72 68 68 77 82 80 83
39 29 31 34 32 34 39 31 31 32 39 43 39 53 38 54 62 62 64 70 76 82 85 90 93 98 90 88 80 88 91 89 84 85 83 81 73 71 65 61 71 72 82 82
46 38 35 34 33 31 35 32 34 38 38 44 40 45 35 63 64 58 58 62 67 75 83 89 88 89 93 89 87 93 89 87 80 82 74 75 76 72 71 73 72 72 80 88
36 33 32 32 28 29 28 37 40 46 47 59 43 41 46 64 48 49 44 60 62 71 78 79 78 80 86 86 90 92 89 82 81 78 76 76 74 71 70 76 77 75 79 87
37 36 31 28 34 33 36 41 62 63 64 59 41 49 36 33 44 37 41 47 58 62 73 78 80 80 81 84 85 86 86 83 78 77 75 71 74 74 74 66 72 70 77 86
42 49 31 31 33 35 40 40 66 63 69 58 52 61 41 35 30 32 34 39 48 56 66 73 75 74 74 76 78 80 78 80 75 75 74 70 67 71 74 75 69 74 75 71
47 41 28 24 26 29 42 48 35 50 70 79 63 52 37 33 32 32 32 48 52 51 63 66 69 70 69 69 72 75 71 70 71 73 71 70 70 74 74 76 90 85 85 81
43 53 34 28 29 32 31 35 50 62 65 70 59 62 47 36 31 38 32 44 51 47 56 61 63 66 64 62 64 68 73 67 64 67 65 65 67 71 77 84 84 87 87 93
36 45 42 33 39 37 42 44 48 46 62 58 61 60 45 37 34 38 35 30 47 46 46 56 60 60 61 60 60 63 67 72 69 66 68 67 71 74 80 83 84 90 93 97
58 54 53 38 28 30 32 38 40 58 62 72 71 48 38 38 34 35 27 26 30 36 42 43 55 59 61 61 61 62 63 67 71 77 76 79 78 84 83 86 86 86 93 98
63 78 72 52 40 36 35 33 34 49 61 57 72 57 40 40 35 34 30 29 27 36 44 44 52 58 59 62 61 61 65 68 72 80 82 84 89 93 94 92 86 92 94 96
76 80 80 86 57 43 46 35 30 41 60 53 50 46 41 39 36 32 33 32 31 28 40 49 49 55 57 58 61 61 66 68 74 80 83 85 88 90 86 86 86 91 94 96
81 88 90 85 69 54 46 37 33 34 40 50 44 47 36 40 38 34 34 35 29 28 39 47 54 54 53 59 59 59 62 70 76 80 83 85 84 83 86 90 95 99 98 98
80 87 91 85 64 62 54 37 32 38 41 43 39 45 38 35 35 39 36 35 32 28 28 42 52 58 67 73 75 69 68 74 78 82 82 78 79 92 95 98 98 99 98 98
89 91 92 78 77 66 71 52 39 32 30 43 49 42 34 39 39 36 34 34 32 30 30 32 53 53 62 81 89 89 84 77 80 78 82 83 96 98 98 98 98 98 98 98
92 92 96 98 84 91 65 44 40 36 31 36 40 37 33 34 34 32 34 34 33 29 30 29 39 60 73 93 96 97 95 94 90 92 97 98 98 98 98 98 98 98 98 98
81 92 98 95 88 68 52 50 46 48 41 32 33 31 28 24 29 29 27 31 35 34 30 32 40 63 94 97 98 95 98 96 98 98 98 97 96 97 96 96 98 97 96 96
90 84 91 99 95 87 51 43 30 45 62 40 34 31 28 28 46 39 30 36 38 37 48 66 88 95 95 98 96 96 98 98 98 97 95 91 89 91 93 94 97 94 90 92
98 100 97 98 97 87 64 74 68 90 74 66 66 61 42 39 34 34 36 44 63 72 87 94 94 94 96 95 95 98 97 98 93 90 88 88 90 90 90 92 91 91 94 97
95 98 99 98 99 91 70 68 91 80 71 71 65 64 73 64 53 47 44 51 65 79 92 94 96 97 96 93 92 95 95 90 87 87 88 89 90 89 89 92 95 93 97 97
80 67 86 83 77 62 65 69 72 75 81 61 74 60 68 65 62 57 62 69 70 83 91 92 90 92 92 90 87 93 93 90 92 90 90 90 90 91 95 92 91 90 93 96
57 63 76 76 59 53 48 57 58 70 68 66 64 62 60 60 61 61 62 64 71 79 87 86 84 87 91 86 86 88 88 87 89 92 91 87 88 85 81 80 84 89 92 92
55 56 52 50 54 50 54 48 48 56 60 55 59 58 55 64 55 62 65 66 70 74 78 81 84 85 89 87 89 87 87 86 90 86 81 80 77 75 76 78 79 84 86 85
93 86 92 89 85 96 66 57 58 59 60 56 55 54 52 58 60 65 66 69 71 78 82 82 82 84 85 85 87 86 82 79 76 80 82 81 76 73 69 71 76 82 86 85

GFSCGP_sfc_rhum_066.txt.gz
RH
45 51 52 42 39 34 35 39 43 37 29 36 41 53 40 72 89 91 93 96 93 98 94 96 78 86 95 90 92 92 95 96 94 94 97 95 94 86 90 83 78 82 80 82
42 49 38 34 35 36 38 41 42 34 28 34 35 38 44 67 77 82 86 94 95 97 99 98 90 84 90 88 90 90 89 88 82 78 83 89 93 83 83 85 81 84 85 86
41 41 31 33 39 37 41 41 42 31 37 37 45 46 40 50 72 72 71 81 88 93 97 92 94 83 82 90 88 86 86 85 83 79 74 76 86 80 77 78 80 79 84 87
45 33 35 36 34 33 39 36 34 36 44 48 44 54 40 36 52 66 69 82 81 89 92 96 91 89 82 82 90 86 86 95 91 88 88 82 81 76 68 66 71 72 79 82
47 42 39 41 35 32 33 34 38 40 47 50 47 53 40 63 46 52 62 67 74 82 89 96 96 94 85 81 91 81 86 95 87 88 84 82 82 68 72 72 70 73 76 82
38 39 36 33 29 32 34 41 44 51 52 66 47 46 50 40 46 38 46 56 60 77 81 88 88 90 96 96 91 80 84 92 89 88 87 84 80 79 79 84 83 82 82 83
39 40 37 33 39 39 39 44 65 68 70 69 45 49 37 33 31 35 34 46 58 64 78 89 94 94 95 98 96 88 88 92 91 88 87 83 80 80 78 73 79 86 84 88
48 52 38 35 35 39 44 46 71 66 71 60 54 58 42 37 32 31 36 41 54 67 74 82 86 85 87 90 94 95 95 93 88 87 85 82 79 80 77 82 74 85 85 80
49 44 28 30 30 29 47 53 40 53 73 77 61 54 41 38 35 34 35 36 48 65 74 77 79 80 81 83 85 89 88 89 86 85 84 82 80 82 84 85 90 90 90 89
48 53 37 32 30 35 38 36 52 65 66 71 62 65 49 39 30 28 34 37 49 60 69 71 74 77 74 74 77 80 84 85 82 81 82 81 81 83 86 89 90 92 94 92
43 50 48 38 44 42 43 44 51 50 65 67 66 54 47 37 34 35 37 38 41 60 60 66 67 70 70 71 71 75 78 80 81 81 81 79 84 85 88 91 93 93 92 90
69 65 65 43 30 31 37 44 47 66 59 77 70 48 34 38 36 38 37 31 36 54 55 60 64 68 71 70 68 69 71 75 76 80 81 82 80 78 81 82 80 81 81 82
65 79 90 60 47 40 43 38 36 51 63 62 72 57 40 40 40 36 38 34 30 39 44 57 69 69 69 68 68 66 69 71 75 77 79 82 79 78 76 74 74 75 79 80
74 76 92 95 95 79 81 60 46 39 55 54 48 45 40 36 39 32 33 36 36 31 38 48 59 65 66 67 68 68 71 72 74 77 78 80 82 79 74 74 77 82 86 89
73 83 88 85 74 72 76 69 63 58 41 50 48 44 39 37 35 35 34 34 34 34 31 41 53 58 65 67 69 68 71 74 75 77 82 81 80 79 77 79 83 86 90 92
85 83 94 93 67 61 68 54 58 56 46 44 46 43 36 34 37 40 38 37 37 35 33 32 46 50 56 66 67 70 72 76 76 78 82 82 82 83 85 86 89 89 92 94
90 92 98 82 75 63 68 70 55 50 53 50 50 42 36 39 40 41 38 40 37 36 32 32 37 47 53 56 67 71 70 75 78 80 81 83 84 86 87 89 94 98 98 99
83 91 96 98 91 88 44 55 44 54 43 36 38 39 37 36 34 36 39 39 40 39 36 32 33 52 54 67 86 90 87 83 83 83 86 87 88 89 98 98 98 99 99 98
85 92 97 97 95 69 53 39 45 47 41 36 49 47 36 33 37 34 31 37 37 37 36 35 34 43 66 87 94 95 96 92 90 90 92 96 96 98 98 98 98 98 98 98
92 86 89 97 98 91 56 61 68 63 70 73 75 68 66 55 47 34 30 31 34 38 41 43 48 79 89 97 96 96 97 97 96 97 98 98 98 98 98 98 98 98 96 97
98 100 95 95 97 86 64 67 72 91 74 73 72 77 70 73 56 52 48 42 41 58 75 86 88 91 94 98 95 96 96 97 98 97 97 96 96 96 96 97 96 95 96 97
90 97 94 99 98 94 65 65 66 71 69 59 62 69 72 66 66 61 64 63 62 68 91 95 96 99 99 97 97 97 98 96 92 93 96 96 94 93 92 95 96 94 94 96
84 80 86 85 84 64 70 57 58 63 59 57 70 59 56 72 66 65 63 68 77 88 95 96 97 99 99 97 95 97 97 92 95 94 95 95 94 94 92 95 97 97 95 96
66 69 76 80 60 59 55 55 57 63 61 55 63 53 64 72 67 66 65 68 72 81 92 93 95 97 97 94 92 96 96 94 93 96 95 94 93 92 91 90 92 95 96 96
65 63 67 65 50 68 45 67 82 72 61 63 66 59 56 62 67 74 70 72 76 81 90 93 93 95 98 96 97 96 95 93 93 88 86 88 87 85 86 88 89 92 90 89
90 92 85 60 96 91 89 84 80 76 80 78 71 66 70 74 78 73 73 82 81 86 84 87 91 91 94 93 94 94 90 84 88 91 90 90 88 85 82 85 92 91 89 87

GFSCGP_sfc_rhum_069.txt.gz
RH
45 38 48 37 31 25 27 30 27 26 24 23 25 27 23 29 57 59 59 63 69 79 71 74 75 75 73 82 87 91 96 97 96 94 92 96 96 93 94 94 91 80 72 69
42 44 38 34 32 30 30 32 30 26 26 27 22 26 22 34 43 45 46 57 65 75 80 79 72 78 80 82 83 86 91 92 89 86 82 83 87 88 88 90 91 84 78 69
29 30 34 36 35 35 34 33 31 28 27 25 30 30 25 23 43 49 54 51 55 67 84 86 77 77 82 79 84 83 85 87 84 86 89 92 94 94 94 95 95 90 81 76
32 23 35 34 34 32 38 30 28 31 30 26 32 36 32 23 25 37 38 52 55 63 70 77 79 74 78 78 77 78 78 78 74 78 85 90 80 88 86 86 85 90 90 86
40 40 37 37 33 30 29 31 32 31 33 35 30 36 32 33 26 22 24 37 47 54 64 73 76 72 71 74 78 76 76 75 73 71 71 77 81 76 83 83 85 83 87 87
34 34 32 27 29 28 28 30 35 42 42 50 38 34 33 27 26 24 22 26 37 52 60 66 70 71 72 71 81 78 77 76 74 73 71 71 72 74 72 72 70 75 78 79
40 34 32 31 33 32 30 36 45 55 58 50 38 38 32 27 23 24 23 22 26 45 58 66 73 76 76 79 84 75 73 76 78 75 73 73 70 71 69 69 64 73 71 68
44 44 36 34 34 37 38 36 48 47 57 45 41 43 30 27 26 26 23 25 30 38 55 61 67 72 76 82 84 76 75 77 79 77 73 71 70 65 64 64 59 62 60 59
51 36 26 31 30 29 43 45 35 47 54 56 40 37 31 29 28 26 25 26 25 30 47 55 62 68 72 77 79 79 78 79 80 77 74 73 71 71 69 68 70 70 68 66
42 48 34 28 28 31 34 34 49 53 52 51 42 46 32 30 23 22 24 26 27 29 44 53 58 67 66 70 74 77 77 82 78 73 74 72 72 71 70 72 71 69 70 68
38 45 46 35 35 36 38 39 43 41 50 47 48 38 39 32 28 28 31 28 32 31 38 50 54 59 62 64 68 74 72 73 77 77 77 75 76 75 74 74 73 72 74 75
62 59 53 37 30 30 30 36 39 52 47 58 55 42 28 36 34 31 30 33 31 27 32 44 52 56 61 64 64 67 68 69 73 79 80 81 79 76 76 76 74 76 74 74
59 73 74 54 43 50 56 49 50 48 49 48 66 44 30 37 37 32 32 31 30 28 28 40 49 54 58 61 62 62 67 67 71 74 78 81 83 81 79 78 75 73 71 70
75 63 85 88 88 76 75 64 57 54 66 50 45 36 30 28 30 27 25 26 27 31 28 32 40 48 53 57 60 61 66 68 71 70 72 76 79 78 76 74 71 72 68 71
69 69 62 59 60 72 62 60 49 44 50 64 49 39 31 30 30 27 28 30 30 29 30 31 36 40 48 56 59 59 61 67 69 70 71 72 73 73 71 72 70 68 70 68
60 77 83 85 68 64 67 55 49 43 48 48 42 44 30 27 29 34 32 31 31 30 29 28 30 35 44 54 57 61 62 68 66 68 71 67 68 70 72 72 71 71 73 73
65 82 86 77 71 64 68 61 47 44 42 46 48 38 33 36 34 33 32 32 34 33 32 31 30 29 38 45 57 60 61 63 68 67 66 68 70 71 74 71 69 73 78 81
64 72 89 85 78 78 36 40 42 48 42 39 37 38 51 48 45 35 28 31 34 33 32 31 31 32 36 40 46 55 56 64 68 67 66 68 72 74 73 76 80 84 88 94
61 72 90 90 81 56 40 32 38 45 39 56 68 60 57 53 49 38 37 37 34 31 30 30 29 32 34 41 49 54 60 60 65 68 69 69 72 75 78 82 96 99 99 99
77 72 84 98 85 83 46 47 58 46 54 57 59 55 61 55 69 54 49 52 54 40 31 31 32 34 39 48 65 64 65 68 65 67 68 70 74 80 97 98 98 98 98 98
90 94 91 95 86 69 52 48 66 61 54 54 52 50 58 57 52 52 55 52 50 55 50 66 65 56 58 72 75 74 78 79 80 85 92 96 96 97 97 98 98 97 97 97
73 90 88 82 90 83 50 57 55 44 50 52 49 47 59 56 58 58 52 51 54 61 73 79 81 94 88 86 82 84 90 94 92 94 97 98 98 98 96 96 96 94 95 97
69 67 74 72 66 56 59 63 51 55 59 56 52 48 51 59 53 53 56 55 55 65 75 80 88 96 93 90 86 95 97 93 95 96 97 98 96 96 95 97 97 95 94 95
61 58 68 62 47 43 38 45 67 70 72 67 62 55 55 59 56 60 61 63 61 67 79 79 84 90 95 89 90 93 94 91 94 97 97 96 96 96 93 92 92 94 95 95
52 57 60 54 48 63 44 72 80 73 71 68 63 66 67 69 66 72 72 77 74 74 79 81 89 94 95 94 96 93 92 90 93 92 90 92 90 90 93 94 93 94 94 90
70 63 70 61 84 90 79 72 79 76 75 69 70 69 66 68 72 77 79 76 70 73 74 76 80 83 82 81 82 83 83 84 87 91 91 92 91 91 89 92 94 93 91 90